Time,TemperatureF,DewpointF,PressureIn,WindDirection,WindDirectionDegrees,WindSpeedMPH,WindSpeedGustMPH,Humidity,HourlyPrecipIn,Conditions,Clouds,dailyrainin,SoftwareType,DateUTC
2013-04-16 00:00:00,53.6,51.3,30.28,ESE,103,3.0,4.0,92,0.00,,,0.01,Wunderground v.1.15,2013-04-16 04:00:00,
2013-04-16 00:01:00,53.6,51.0,30.28,East,94,2.0,5.0,92,0.00,,,0.01,weatherlink.com 1.10,2013-04-16 04:01:00,
2013-04-16 00:02:00,53.5,51.2,30.28,ENE,67,3.0,4.0,92,0.00,,,0.01,Wunderground v.1.15,2013-04-16 04:02:00,
2013-04-16 00:03:00,53.5,51.2,30.27,ESE,104,4.0,4.0,92,0.00,,,0.01,Wunderground v.1.15,2013-04-16 04:03:00,
2013-04-16 00:05:00,53.5,51.0,30.27,East,84,3.0,7.0,92,0.00,,,0.01,weatherlink.com 1.10,2013-04-16 04:05:00,
2013-04-16 00:08:00,53.4,51.4,30.27,East,94,3.0,4.0,93,0.00,,,0.01,Wunderground v.1.15,2013-04-16 04:08:00,
2013-04-16 00:09:00,53.4,51.4,30.27,East,100,3.0,4.0,93,0.00,,,0.01,Wunderground v.1.15,2013-04-16 04:09:00,
2013-04-16 00:11:00,53.4,51.4,30.27,East,86,5.0,5.0,93,0.00,,,0.01,Wunderground v.1.15,2013-04-16 04:11:00,
2013-04-16 00:13:00,53.4,51.4,30.27,ENE,78,0.0,5.0,93,0.00,,,0.01,Wunderground v.1.15,2013-04-16 04:13:00,
2013-04-16 00:15:00,53.4,51.4,30.27,SE,131,2.0,5.0,93,0.00,,,0.01,Wunderground v.1.15,2013-04-16 04:15:00,
2013-04-16 00:17:00,53.4,51.4,30.27,ESE,123,4.0,5.0,93,0.00,,,0.01,Wunderground v.1.15,2013-04-16 04:17:00,
2013-04-16 00:19:00,53.3,51.3,30.27,ESE,121,5.0,5.0,93,0.00,,,0.01,Wunderground v.1.15,2013-04-16 04:19:00,
2013-04-16 00:20:00,53.3,51.3,30.27,South,169,5.0,5.0,93,0.00,,,0.01,Wunderground v.1.15,2013-04-16 04:20:00,
2013-04-16 00:23:00,53.3,51.3,30.27,SE,129,1.0,5.0,93,0.00,,,0.01,Wunderground v.1.15,2013-04-16 04:23:00,
2013-04-16 00:25:00,53.3,51.3,30.27,East,86,1.0,5.0,93,0.00,,,0.01,Wunderground v.1.15,2013-04-16 04:25:00,
2013-04-16 00:26:00,53.3,51.3,30.27,East,92,2.0,5.0,93,0.00,,,0.01,Wunderground v.1.15,2013-04-16 04:26:00,
2013-04-16 00:29:00,53.3,51.3,30.27,East,89,5.0,5.0,93,0.00,,,0.01,Wunderground v.1.15,2013-04-16 04:29:00,
2013-04-16 00:31:00,53.3,51.3,30.27,East,88,6.0,6.0,93,0.00,,,0.01,Wunderground v.1.15,2013-04-16 04:31:00,
2013-04-16 00:33:00,53.3,51.0,30.27,East,88,5.0,8.0,93,0.00,,,0.01,weatherlink.com 1.10,2013-04-16 04:33:00,
2013-04-16 00:34:00,53.3,51.3,30.27,SSE,150,1.0,6.0,93,0.00,,,0.01,Wunderground v.1.15,2013-04-16 04:34:00,
2013-04-16 00:35:00,53.3,51.3,30.27,ESE,114,2.0,6.0,93,0.00,,,0.01,Wunderground v.1.15,2013-04-16 04:35:00,
2013-04-16 00:36:00,53.2,51.2,30.27,ENE,69,2.0,6.0,93,0.00,,,0.01,Wunderground v.1.15,2013-04-16 04:36:00,
2013-04-16 00:39:00,53.3,51.3,30.27,SSE,153,0.0,6.0,93,0.00,,,0.01,Wunderground v.1.15,2013-04-16 04:39:00,
2013-04-16 00:42:00,53.3,51.3,30.27,ESE,107,4.0,4.0,93,0.00,,,0.01,Wunderground v.1.15,2013-04-16 04:42:00,
2013-04-16 00:43:00,53.3,51.3,30.27,East,82,7.0,7.0,93,0.00,,,0.01,Wunderground v.1.15,2013-04-16 04:43:00,
2013-04-16 00:45:00,53.3,51.3,30.27,East,84,5.0,7.0,93,0.00,,,0.01,Wunderground v.1.15,2013-04-16 04:45:00,
2013-04-16 00:46:00,53.3,51.3,30.26,ENE,64,8.0,8.0,93,0.00,,,0.01,Wunderground v.1.15,2013-04-16 04:46:00,
2013-04-16 00:47:00,53.3,51.3,30.26,East,88,3.0,8.0,93,0.00,,,0.01,Wunderground v.1.15,2013-04-16 04:47:00,
2013-04-16 00:50:00,53.3,51.3,30.26,NE,48,1.0,4.0,93,0.00,,,0.01,Wunderground v.1.15,2013-04-16 04:50:00,
2013-04-16 00:51:00,53.3,51.3,30.26,ESE,113,1.0,4.0,93,0.00,,,0.01,Wunderground v.1.15,2013-04-16 04:51:00,
2013-04-16 00:52:00,53.3,51.3,30.26,ESE,105,2.0,4.0,93,0.00,,,0.01,Wunderground v.1.15,2013-04-16 04:52:00,
2013-04-16 00:53:00,53.3,51.3,30.26,SE,133,2.0,4.0,93,0.00,,,0.01,Wunderground v.1.15,2013-04-16 04:53:00,
2013-04-16 00:54:00,53.3,51.3,30.27,SSE,161,3.0,4.0,93,0.00,,,0.01,Wunderground v.1.15,2013-04-16 04:54:00,
2013-04-16 00:58:00,53.2,51.2,30.27,SSE,161,2.0,4.0,93,0.00,,,0.01,Wunderground v.1.15,2013-04-16 04:58:00,
2013-04-16 00:59:00,53.2,51.2,30.27,East,87,1.0,4.0,93,0.00,,,0.01,Wunderground v.1.15,2013-04-16 04:59:00,
2013-04-16 01:00:00,53.2,51.2,30.27,ESE,104,3.0,3.0,93,0.00,,,0.01,Wunderground v.1.15,2013-04-16 05:00:00,
2013-04-16 01:01:00,53.2,51.2,30.27,ESE,105,2.0,3.0,93,0.00,,,0.01,Wunderground v.1.15,2013-04-16 05:01:00,
2013-04-16 01:05:00,53.2,52.0,30.27,ENE,64,2.0,7.0,94,0.00,,,0.01,weatherlink.com 1.10,2013-04-16 05:05:00,
2013-04-16 01:06:00,53.2,51.5,30.27,ENE,76,1.0,3.0,94,0.00,,,0.01,Wunderground v.1.15,2013-04-16 05:06:00,
2013-04-16 01:07:00,53.2,51.5,30.27,ENE,73,5.0,5.0,94,0.00,,,0.01,Wunderground v.1.15,2013-04-16 05:07:00,
2013-04-16 01:08:00,53.2,51.5,30.27,ESE,111,4.0,5.0,94,0.00,,,0.01,Wunderground v.1.15,2013-04-16 05:08:00,
2013-04-16 01:12:00,53.2,51.5,30.27,NE,42,2.0,3.0,94,0.00,,,0.01,Wunderground v.1.15,2013-04-16 05:12:00,
2013-04-16 01:13:00,53.2,51.5,30.27,ESE,103,2.0,3.0,94,0.00,,,0.01,Wunderground v.1.15,2013-04-16 05:13:00,
2013-04-16 01:14:00,53.2,51.5,30.27,East,97,1.0,3.0,94,0.00,,,0.01,Wunderground v.1.15,2013-04-16 05:14:00,
2013-04-16 01:18:00,53.2,51.5,30.27,SE,146,4.0,6.0,94,0.00,,,0.01,Wunderground v.1.15,2013-04-16 05:18:00,
2013-04-16 01:19:00,53.2,51.5,30.27,SE,146,1.0,6.0,94,0.00,,,0.01,Wunderground v.1.15,2013-04-16 05:19:00,
2013-04-16 01:20:00,53.2,51.5,30.27,SE,146,1.0,2.0,94,0.00,,,0.01,Wunderground v.1.15,2013-04-16 05:20:00,
2013-04-16 01:22:00,53.2,51.5,30.27,SSE,157,1.0,2.0,94,0.00,,,0.01,Wunderground v.1.15,2013-04-16 05:22:00,
2013-04-16 01:25:00,53.2,51.5,30.27,East,86,0.0,2.0,94,0.00,,,0.01,Wunderground v.1.15,2013-04-16 05:25:00,
2013-04-16 01:26:00,53.2,51.5,30.27,South,183,4.0,4.0,94,0.00,,,0.01,Wunderground v.1.15,2013-04-16 05:26:00,
2013-04-16 01:28:00,53.2,51.5,30.27,SE,142,0.0,4.0,94,0.00,,,0.01,Wunderground v.1.15,2013-04-16 05:28:00,
2013-04-16 01:31:00,53.2,51.5,30.27,East,86,1.0,2.0,94,0.00,,,0.01,Wunderground v.1.15,2013-04-16 05:31:00,
2013-04-16 01:32:00,53.2,51.5,30.27,ESE,109,2.0,2.0,94,0.00,,,0.01,Wunderground v.1.15,2013-04-16 05:32:00,
2013-04-16 01:33:00,53.2,51.5,30.27,East,86,2.0,2.0,94,0.00,,,0.01,Wunderground v.1.15,2013-04-16 05:33:00,
2013-04-16 01:35:00,53.2,51.5,30.27,ESE,111,1.0,2.0,94,0.00,,,0.01,Wunderground v.1.15,2013-04-16 05:35:00,
2013-04-16 01:36:00,53.2,51.5,30.27,SSE,149,0.0,2.0,94,0.00,,,0.01,Wunderground v.1.15,2013-04-16 05:36:00,
2013-04-16 01:38:00,53.1,51.4,30.27,ESE,120,0.0,2.0,94,0.00,,,0.01,Wunderground v.1.15,2013-04-16 05:38:00,
2013-04-16 01:40:00,53.2,51.5,30.27,SE,132,1.0,1.0,94,0.00,,,0.01,Wunderground v.1.15,2013-04-16 05:40:00,
2013-04-16 01:41:00,53.2,51.5,30.27,SE,132,2.0,2.0,94,0.00,,,0.01,Wunderground v.1.15,2013-04-16 05:41:00,
2013-04-16 01:45:00,53.2,51.5,30.27,East,95,1.0,5.0,94,0.00,,,0.01,Wunderground v.1.15,2013-04-16 05:45:00,
2013-04-16 01:47:00,53.2,51.8,30.27,ESE,114,0.0,5.0,95,0.00,,,0.01,Wunderground v.1.15,2013-04-16 05:47:00,
2013-04-16 01:49:00,53.2,52.0,30.26,South,171,2.0,8.0,95,0.00,,,0.01,weatherlink.com 1.10,2013-04-16 05:49:00,
2013-04-16 01:50:00,53.2,51.8,30.26,SE,140,1.0,2.0,95,0.00,,,0.01,Wunderground v.1.15,2013-04-16 05:50:00,
2013-04-16 01:53:00,53.2,51.8,30.26,ESE,111,0.0,2.0,95,0.00,,,0.01,Wunderground v.1.15,2013-04-16 05:53:00,
2013-04-16 01:55:00,53.2,51.8,30.26,SE,130,2.0,2.0,95,0.00,,,0.01,Wunderground v.1.15,2013-04-16 05:55:00,
2013-04-16 01:56:00,53.2,51.8,30.27,ESE,107,2.0,2.0,95,0.00,,,0.01,Wunderground v.1.15,2013-04-16 05:56:00,
2013-04-16 02:00:00,53.2,51.8,30.26,SSE,159,3.0,3.0,95,0.00,,,0.01,Wunderground v.1.15,2013-04-16 06:00:00,
2013-04-16 02:01:00,53.2,51.8,30.26,SSE,158,1.0,3.0,95,0.00,,,0.01,Wunderground v.1.15,2013-04-16 06:01:00,
2013-04-16 02:05:00,53.2,51.8,30.26,East,97,1.0,6.0,95,0.00,,,0.01,Wunderground v.1.15,2013-04-16 06:05:00,
2013-04-16 02:06:00,53.1,51.7,30.26,ESE,113,2.0,6.0,95,0.00,,,0.01,Wunderground v.1.15,2013-04-16 06:06:00,
2013-04-16 02:10:00,53.1,51.7,30.26,SSE,158,2.0,5.0,95,0.00,,,0.01,Wunderground v.1.15,2013-04-16 06:10:00,
2013-04-16 02:12:00,53.1,51.7,30.26,SE,127,2.0,5.0,95,0.00,,,0.01,Wunderground v.1.15,2013-04-16 06:12:00,
2013-04-16 02:16:00,53.0,51.6,30.26,ESE,102,0.0,6.0,95,0.00,,,0.01,Wunderground v.1.15,2013-04-16 06:16:00,
2013-04-16 02:17:00,53.0,51.6,30.26,East,96,0.0,6.0,95,0.00,,,0.01,Wunderground v.1.15,2013-04-16 06:17:00,
2013-04-16 02:21:00,53.0,51.6,30.26,SSE,152,5.0,6.0,95,0.00,,,0.01,Wunderground v.1.15,2013-04-16 06:21:00,
2013-04-16 02:22:00,53.0,51.6,30.26,SE,136,3.0,6.0,95,0.00,,,0.01,Wunderground v.1.15,2013-04-16 06:22:00,
2013-04-16 02:23:00,53.0,51.6,30.26,SSE,161,3.0,6.0,95,0.00,,,0.01,Wunderground v.1.15,2013-04-16 06:23:00,
2013-04-16 02:27:00,52.9,51.5,30.26,East,80,3.0,6.0,95,0.00,,,0.01,Wunderground v.1.15,2013-04-16 06:27:00,
2013-04-16 02:28:00,52.9,51.5,30.26,ESE,103,2.0,6.0,95,0.00,,,0.01,Wunderground v.1.15,2013-04-16 06:28:00,
2013-04-16 02:33:00,52.9,51.8,30.26,East,96,2.0,6.0,96,0.00,,,0.01,Wunderground v.1.15,2013-04-16 06:33:00,
2013-04-16 02:38:00,52.9,51.8,30.26,SSE,163,3.0,7.0,96,0.00,,,0.01,Wunderground v.1.15,2013-04-16 06:38:00,
2013-04-16 02:39:00,52.9,51.8,30.25,ESE,108,2.0,7.0,96,0.00,,,0.01,Wunderground v.1.15,2013-04-16 06:39:00,
2013-04-16 02:43:00,52.9,51.8,30.25,SSE,163,4.0,4.0,96,0.00,,,0.01,Wunderground v.1.15,2013-04-16 06:43:00,
2013-04-16 02:44:00,52.9,51.8,30.25,ESE,122,3.0,4.0,96,0.00,,,0.01,Wunderground v.1.15,2013-04-16 06:44:00,
2013-04-16 02:45:00,52.9,51.8,30.25,SSE,148,2.0,4.0,96,0.00,,,0.01,Wunderground v.1.15,2013-04-16 06:45:00,
2013-04-16 02:48:00,52.9,51.8,30.25,SSE,158,2.0,5.0,96,0.00,,,0.01,Wunderground v.1.15,2013-04-16 06:48:00,
2013-04-16 02:49:00,52.9,51.8,30.25,SE,128,1.0,5.0,96,0.00,,,0.01,Wunderground v.1.15,2013-04-16 06:49:00,
2013-04-16 02:50:00,52.9,51.8,30.25,SSE,150,3.0,3.0,96,0.00,,,0.01,Wunderground v.1.15,2013-04-16 06:50:00,
2013-04-16 02:53:00,52.9,51.8,30.25,ESE,120,1.0,4.0,96,0.00,,,0.01,Wunderground v.1.15,2013-04-16 06:53:00,
2013-04-16 02:54:00,52.9,51.8,30.25,SSE,164,3.0,4.0,96,0.00,,,0.01,Wunderground v.1.15,2013-04-16 06:54:00,
2013-04-16 02:56:00,52.9,51.8,30.26,SSE,157,3.0,4.0,96,0.00,,,0.01,Wunderground v.1.15,2013-04-16 06:56:00,
2013-04-16 02:58:00,52.9,51.8,30.26,SSE,160,1.0,4.0,96,0.00,,,0.01,Wunderground v.1.15,2013-04-16 06:58:00,
2013-04-16 02:59:00,52.9,51.8,30.26,SSE,161,2.0,4.0,96,0.00,,,0.01,Wunderground v.1.15,2013-04-16 06:59:00,
2013-04-16 03:01:00,52.9,51.8,30.26,South,171,3.0,4.0,96,0.00,,,0.01,Wunderground v.1.15,2013-04-16 07:01:00,
2013-04-16 03:04:00,53.0,51.9,30.26,South,190,3.0,4.0,96,0.00,,,0.01,Wunderground v.1.15,2013-04-16 07:04:00,
2013-04-16 03:05:00,53.0,51.9,30.26,South,188,1.0,4.0,96,0.00,,,0.01,Wunderground v.1.15,2013-04-16 07:05:00,
2013-04-16 03:06:00,53.0,51.9,30.26,South,188,1.0,4.0,96,0.00,,,0.01,Wunderground v.1.15,2013-04-16 07:06:00,
2013-04-16 03:09:00,52.9,51.8,30.26,SW,218,2.0,4.0,96,0.00,,,0.01,Wunderground v.1.15,2013-04-16 07:09:00,
2013-04-16 03:10:00,52.9,51.8,30.26,South,176,2.0,3.0,96,0.00,,,0.01,Wunderground v.1.15,2013-04-16 07:10:00,
2013-04-16 03:11:00,52.9,51.8,30.26,SSE,168,3.0,3.0,96,0.00,,,0.01,Wunderground v.1.15,2013-04-16 07:11:00,
2013-04-16 03:14:00,52.9,51.8,30.26,SSW,192,2.0,6.0,96,0.00,,,0.01,Wunderground v.1.15,2013-04-16 07:14:00,
2013-04-16 03:15:00,52.9,51.8,30.26,South,184,1.0,6.0,96,0.00,,,0.01,Wunderground v.1.15,2013-04-16 07:15:00,
2013-04-16 03:17:00,52.9,51.8,30.26,SSE,151,1.0,6.0,96,0.00,,,0.01,Wunderground v.1.15,2013-04-16 07:17:00,
2013-04-16 03:19:00,52.8,51.7,30.25,SSE,165,1.0,6.0,96,0.00,,,0.01,Wunderground v.1.15,2013-04-16 07:19:00,
2013-04-16 03:20:00,52.8,51.7,30.25,South,170,1.0,3.0,96,0.00,,,0.01,Wunderground v.1.15,2013-04-16 07:20:00,
2013-04-16 03:22:00,52.8,51.7,30.25,South,188,4.0,4.0,96,0.00,,,0.01,Wunderground v.1.15,2013-04-16 07:22:00,
2013-04-16 03:24:00,52.8,51.7,30.25,South,171,2.0,5.0,96,0.00,,,0.01,Wunderground v.1.15,2013-04-16 07:24:00,
2013-04-16 03:25:00,52.8,51.7,30.25,SSE,160,3.0,5.0,96,0.00,,,0.01,Wunderground v.1.15,2013-04-16 07:25:00,
2013-04-16 03:27:00,52.8,51.7,30.25,SSE,150,2.0,5.0,96,0.00,,,0.01,Wunderground v.1.15,2013-04-16 07:27:00,
2013-04-16 03:30:00,52.8,51.7,30.25,SSE,167,1.0,3.0,96,0.00,,,0.01,Wunderground v.1.15,2013-04-16 07:30:00,
2013-04-16 03:32:00,52.8,51.7,30.26,South,169,3.0,5.0,96,0.00,,,0.01,Wunderground v.1.15,2013-04-16 07:32:00,
2013-04-16 03:35:00,52.8,51.7,30.26,South,183,3.0,5.0,96,0.00,,,0.01,Wunderground v.1.15,2013-04-16 07:35:00,
2013-04-16 03:37:00,52.8,51.7,30.26,SSE,165,4.0,5.0,96,0.00,,,0.01,Wunderground v.1.15,2013-04-16 07:37:00,
2013-04-16 03:41:00,52.8,51.7,30.26,SSE,149,4.0,5.0,96,0.00,,,0.01,Wunderground v.1.15,2013-04-16 07:41:00,
2013-04-16 03:42:00,52.8,51.7,30.26,SSE,153,3.0,5.0,96,0.00,,,0.01,Wunderground v.1.15,2013-04-16 07:42:00,
2013-04-16 03:46:00,52.8,51.7,30.26,SSE,162,6.0,6.0,96,0.00,,,0.01,Wunderground v.1.15,2013-04-16 07:46:00,
2013-04-16 03:47:00,52.8,51.7,30.26,ESE,119,3.0,6.0,96,0.00,,,0.01,Wunderground v.1.15,2013-04-16 07:47:00,
2013-04-16 03:48:00,52.8,51.7,30.26,SSE,167,3.0,6.0,96,0.00,,,0.01,Wunderground v.1.15,2013-04-16 07:48:00,
2013-04-16 03:51:00,52.7,51.6,30.26,South,169,0.0,4.0,96,0.00,,,0.01,Wunderground v.1.15,2013-04-16 07:51:00,
2013-04-16 03:52:00,52.7,51.6,30.26,South,170,3.0,4.0,96,0.00,,,0.01,Wunderground v.1.15,2013-04-16 07:52:00,
2013-04-16 03:53:00,52.7,51.6,30.26,SSE,148,4.0,5.0,96,0.00,,,0.01,Wunderground v.1.15,2013-04-16 07:53:00,
2013-04-16 03:57:00,52.7,51.6,30.26,SSE,163,3.0,5.0,96,0.00,,,0.01,Wunderground v.1.15,2013-04-16 07:57:00,
2013-04-16 03:58:00,52.8,51.7,30.26,SE,143,1.0,6.0,96,0.00,,,0.01,Wunderground v.1.15,2013-04-16 07:58:00,
2013-04-16 04:02:00,52.8,51.7,30.26,South,184,4.0,4.0,96,0.00,,,0.01,Wunderground v.1.15,2013-04-16 08:02:00,
2013-04-16 04:03:00,52.8,51.7,30.26,South,169,3.0,6.0,96,0.00,,,0.01,Wunderground v.1.15,2013-04-16 08:03:00,
2013-04-16 04:04:00,52.8,51.7,30.26,SSE,161,3.0,6.0,96,0.00,,,0.01,Wunderground v.1.15,2013-04-16 08:04:00,
2013-04-16 04:07:00,52.8,52.0,30.26,SSE,150,2.0,6.0,97,0.00,,,0.01,Wunderground v.1.15,2013-04-16 08:07:00,
2013-04-16 04:08:00,52.8,52.0,30.26,SSE,158,0.0,6.0,97,0.00,,,0.01,Wunderground v.1.15,2013-04-16 08:08:00,
2013-04-16 04:09:00,52.8,52.0,30.25,SSE,166,2.0,6.0,97,0.00,,,0.01,Wunderground v.1.15,2013-04-16 08:09:00,
2013-04-16 04:12:00,52.8,52.0,30.25,SSE,158,4.0,5.0,97,0.00,,,0.01,Wunderground v.1.15,2013-04-16 08:12:00,
2013-04-16 04:13:00,52.8,52.0,30.25,SSE,157,5.0,5.0,97,0.00,,,0.01,Wunderground v.1.15,2013-04-16 08:13:00,
2013-04-16 04:14:00,52.8,52.0,30.25,SE,140,4.0,5.0,97,0.00,,,0.01,Wunderground v.1.15,2013-04-16 08:14:00,
2013-04-16 04:15:00,52.8,52.0,30.25,SSE,149,2.0,5.0,97,0.00,,,0.01,Wunderground v.1.15,2013-04-16 08:15:00,
2013-04-16 04:17:00,52.8,52.0,30.25,SSE,165,1.0,6.0,97,0.00,,,0.01,Wunderground v.1.15,2013-04-16 08:17:00,
2013-04-16 04:18:00,52.8,52.0,30.25,SSE,163,4.0,6.0,97,0.00,,,0.01,Wunderground v.1.15,2013-04-16 08:18:00,
2013-04-16 04:19:00,52.8,52.0,30.25,South,178,4.0,6.0,97,0.00,,,0.01,Wunderground v.1.15,2013-04-16 08:19:00,
2013-04-16 04:20:00,52.8,52.0,30.26,SSE,157,2.0,4.0,97,0.00,,,0.01,Wunderground v.1.15,2013-04-16 08:20:00,
2013-04-16 04:22:00,52.8,52.0,30.26,South,182,3.0,5.0,97,0.00,,,0.01,Wunderground v.1.15,2013-04-16 08:22:00,
2013-04-16 04:23:00,52.8,52.0,30.26,SE,140,3.0,5.0,97,0.00,,,0.01,Wunderground v.1.15,2013-04-16 08:23:00,
2013-04-16 04:24:00,52.8,52.0,30.25,SSE,149,4.0,5.0,97,0.00,,,0.01,Wunderground v.1.15,2013-04-16 08:24:00,
2013-04-16 04:25:00,52.8,52.0,30.25,SSE,166,2.0,5.0,97,0.00,,,0.01,Wunderground v.1.15,2013-04-16 08:25:00,
2013-04-16 04:28:00,52.8,52.0,30.26,South,177,3.0,5.0,97,0.00,,,0.01,Wunderground v.1.15,2013-04-16 08:28:00,
2013-04-16 04:29:00,52.9,52.1,30.26,South,188,1.0,5.0,97,0.00,,,0.01,Wunderground v.1.15,2013-04-16 08:29:00,
2013-04-16 04:31:00,52.8,52.0,30.26,South,188,1.0,3.0,97,0.00,,,0.01,Wunderground v.1.15,2013-04-16 08:31:00,
2013-04-16 04:33:00,52.8,52.0,30.26,South,178,2.0,3.0,97,0.00,,,0.01,Wunderground v.1.15,2013-04-16 08:33:00,
2013-04-16 04:34:00,52.7,51.9,30.26,SSE,159,4.0,6.0,97,0.00,,,0.01,Wunderground v.1.15,2013-04-16 08:34:00,
2013-04-16 04:36:00,52.8,52.0,30.26,SE,146,2.0,6.0,97,0.00,,,0.01,Wunderground v.1.15,2013-04-16 08:36:00,
2013-04-16 04:37:00,52.8,52.0,30.26,SSE,150,2.0,6.0,97,0.00,,,0.01,Wunderground v.1.15,2013-04-16 08:37:00,
2013-04-16 04:38:00,52.8,52.0,30.26,SSE,167,3.0,6.0,97,0.00,,,0.01,Wunderground v.1.15,2013-04-16 08:38:00,
2013-04-16 04:39:00,52.8,52.0,30.26,SSE,157,2.0,6.0,97,0.00,,,0.01,Wunderground v.1.15,2013-04-16 08:39:00,
2013-04-16 04:42:00,52.8,52.0,30.26,SE,138,4.0,4.0,97,0.00,,,0.01,Wunderground v.1.15,2013-04-16 08:42:00,
2013-04-16 04:43:00,52.8,52.0,30.26,SE,144,3.0,5.0,97,0.00,,,0.01,Wunderground v.1.15,2013-04-16 08:43:00,
2013-04-16 04:44:00,52.8,52.0,30.26,SSE,161,5.0,5.0,97,0.00,,,0.01,Wunderground v.1.15,2013-04-16 08:44:00,
2013-04-16 04:47:00,52.9,52.1,30.26,SSE,161,5.0,7.0,97,0.00,,,0.01,Wunderground v.1.15,2013-04-16 08:47:00,
2013-04-16 04:49:00,52.9,52.1,30.26,SSE,167,3.0,7.0,97,0.00,,,0.01,Wunderground v.1.15,2013-04-16 08:49:00,
2013-04-16 04:50:00,52.9,52.1,30.26,SSE,157,6.0,6.0,97,0.00,,,0.01,Wunderground v.1.15,2013-04-16 08:50:00,
2013-04-16 04:52:00,52.9,52.1,30.26,SSE,167,3.0,6.0,97,0.00,,,0.01,Wunderground v.1.15,2013-04-16 08:52:00,
2013-04-16 04:54:00,52.9,52.1,30.26,SSE,158,5.0,6.0,97,0.00,,,0.01,Wunderground v.1.15,2013-04-16 08:54:00,
2013-04-16 04:55:00,52.9,52.1,30.26,South,175,5.0,6.0,97,0.00,,,0.01,Wunderground v.1.15,2013-04-16 08:55:00,
2013-04-16 04:57:00,52.9,52.1,30.26,South,172,3.0,7.0,97,0.00,,,0.01,Wunderground v.1.15,2013-04-16 08:57:00,
2013-04-16 04:59:00,52.9,52.1,30.26,SSE,151,5.0,7.0,97,0.00,,,0.01,Wunderground v.1.15,2013-04-16 08:59:00,
2013-04-16 05:00:00,52.9,52.1,30.26,SSE,168,2.0,4.0,97,0.00,,,0.01,Wunderground v.1.15,2013-04-16 09:00:00,
2013-04-16 05:02:00,52.9,52.1,30.26,SSE,148,3.0,5.0,97,0.00,,,0.01,Wunderground v.1.15,2013-04-16 09:02:00,
2013-04-16 05:03:00,52.9,52.1,30.26,SSE,149,2.0,5.0,97,0.00,,,0.01,Wunderground v.1.15,2013-04-16 09:03:00,
2013-04-16 05:04:00,52.9,52.1,30.26,SSE,150,3.0,5.0,97,0.00,,,0.01,Wunderground v.1.15,2013-04-16 09:04:00,
2013-04-16 05:05:00,52.9,52.1,30.26,SSE,154,1.0,5.0,97,0.00,,,0.01,Wunderground v.1.15,2013-04-16 09:05:00,
2013-04-16 05:07:00,52.8,52.0,30.26,SSE,165,3.0,5.0,97,0.00,,,0.01,Wunderground v.1.15,2013-04-16 09:07:00,
2013-04-16 05:08:00,52.8,52.0,30.26,SSE,150,4.0,5.0,97,0.00,,,0.01,Wunderground v.1.15,2013-04-16 09:08:00,
2013-04-16 05:09:00,52.9,52.1,30.26,SSE,166,4.0,6.0,97,0.00,,,0.01,Wunderground v.1.15,2013-04-16 09:09:00,
2013-04-16 05:10:00,52.8,52.0,30.26,SSE,153,4.0,5.0,97,0.00,,,0.01,Wunderground v.1.15,2013-04-16 09:10:00,
2013-04-16 05:12:00,52.9,52.1,30.26,SSE,168,3.0,6.0,97,0.00,,,0.01,Wunderground v.1.15,2013-04-16 09:12:00,
2013-04-16 05:13:00,52.9,52.1,30.26,SSE,154,3.0,6.0,97,0.00,,,0.01,Wunderground v.1.15,2013-04-16 09:13:00,
2013-04-16 05:14:00,52.9,52.1,30.26,South,170,2.0,6.0,97,0.00,,,0.01,Wunderground v.1.15,2013-04-16 09:14:00,
2013-04-16 05:15:00,52.9,52.1,30.26,SSE,163,3.0,6.0,97,0.00,,,0.01,Wunderground v.1.15,2013-04-16 09:15:00,
2013-04-16 05:17:00,52.9,52.1,30.26,South,187,6.0,6.0,97,0.00,,,0.01,Wunderground v.1.15,2013-04-16 09:17:00,
2013-04-16 05:18:00,52.9,52.1,30.26,SSE,158,4.0,8.0,97,0.00,,,0.01,Wunderground v.1.15,2013-04-16 09:18:00,
2013-04-16 05:19:00,52.9,52.1,30.26,SSE,147,5.0,8.0,97,0.00,,,0.01,Wunderground v.1.15,2013-04-16 09:19:00,
2013-04-16 05:20:00,52.9,52.1,30.26,SSE,153,3.0,4.0,97,0.00,,,0.01,Wunderground v.1.15,2013-04-16 09:20:00,
2013-04-16 05:22:00,52.9,52.1,30.26,SSE,164,4.0,5.0,97,0.00,,,0.01,Wunderground v.1.15,2013-04-16 09:22:00,
2013-04-16 05:23:00,52.9,52.1,30.26,SE,144,3.0,6.0,97,0.00,,,0.01,Wunderground v.1.15,2013-04-16 09:23:00,
2013-04-16 05:25:00,53.0,52.2,30.26,SSE,153,3.0,6.0,97,0.00,,,0.01,Wunderground v.1.15,2013-04-16 09:25:00,
2013-04-16 05:26:00,53.0,52.2,30.26,SSE,149,3.0,6.0,97,0.00,,,0.01,Wunderground v.1.15,2013-04-16 09:26:00,
2013-04-16 05:27:00,53.0,52.2,30.26,East,101,3.0,6.0,97,0.00,,,0.01,Wunderground v.1.15,2013-04-16 09:27:00,
2013-04-16 05:28:00,53.0,52.2,30.26,SSE,166,2.0,6.0,97,0.00,,,0.01,Wunderground v.1.15,2013-04-16 09:28:00,
2013-04-16 05:30:00,53.0,52.2,30.26,SE,144,3.0,3.0,97,0.00,,,0.01,Wunderground v.1.15,2013-04-16 09:30:00,
2013-04-16 05:31:00,53.0,52.2,30.26,SSE,163,3.0,4.0,97,0.00,,,0.01,Wunderground v.1.15,2013-04-16 09:31:00,
2013-04-16 05:33:00,53.0,52.2,30.26,SSE,150,4.0,5.0,97,0.00,,,0.01,Wunderground v.1.15,2013-04-16 09:33:00,
2013-04-16 05:35:00,53.0,52.2,30.26,SSE,157,5.0,6.0,97,0.00,,,0.01,Wunderground v.1.15,2013-04-16 09:35:00,
2013-04-16 05:36:00,53.1,52.3,30.26,South,180,1.0,6.0,97,0.00,,,0.01,Wunderground v.1.15,2013-04-16 09:36:00,
2013-04-16 05:37:00,53.1,52.3,30.26,SSE,164,3.0,6.0,97,0.00,,,0.01,Wunderground v.1.15,2013-04-16 09:37:00,
2013-04-16 05:38:00,53.1,52.3,30.26,SSE,151,6.0,6.0,97,0.00,,,0.01,Wunderground v.1.15,2013-04-16 09:38:00,
2013-04-16 05:39:00,53.0,52.2,30.26,South,189,3.0,6.0,97,0.00,,,0.01,Wunderground v.1.15,2013-04-16 09:39:00,
2013-04-16 05:40:00,53.0,52.2,30.26,SSE,161,4.0,5.0,97,0.00,,,0.01,Wunderground v.1.15,2013-04-16 09:40:00,
2013-04-16 05:41:00,53.0,52.2,30.26,SSE,166,2.0,5.0,97,0.00,,,0.01,Wunderground v.1.15,2013-04-16 09:41:00,
2013-04-16 05:43:00,53.1,52.3,30.26,SSE,163,3.0,5.0,97,0.00,,,0.01,Wunderground v.1.15,2013-04-16 09:43:00,
2013-04-16 05:44:00,53.1,52.3,30.26,SSE,157,3.0,6.0,97,0.00,,,0.01,Wunderground v.1.15,2013-04-16 09:44:00,
2013-04-16 05:45:00,53.1,52.3,30.26,South,169,2.0,6.0,97,0.00,,,0.01,Wunderground v.1.15,2013-04-16 09:45:00,
2013-04-16 05:46:00,53.1,52.3,30.26,SSE,159,2.0,6.0,97,0.00,,,0.01,Wunderground v.1.15,2013-04-16 09:46:00,
2013-04-16 05:48:00,53.1,52.3,30.26,SE,136,2.0,6.0,97,0.00,,,0.01,Wunderground v.1.15,2013-04-16 09:48:00,
2013-04-16 05:49:00,53.1,52.3,30.26,SE,143,4.0,6.0,97,0.00,,,0.01,Wunderground v.1.15,2013-04-16 09:49:00,
2013-04-16 05:50:00,53.1,52.3,30.26,South,171,3.0,4.0,97,0.00,,,0.01,Wunderground v.1.15,2013-04-16 09:50:00,
2013-04-16 05:51:00,53.1,52.3,30.26,South,179,3.0,5.0,97,0.00,,,0.01,Wunderground v.1.15,2013-04-16 09:51:00,
2013-04-16 05:53:00,53.2,52.4,30.26,SE,136,1.0,5.0,97,0.00,,,0.01,Wunderground v.1.15,2013-04-16 09:53:00,
2013-04-16 05:54:00,53.1,52.3,30.26,SSE,149,3.0,5.0,97,0.00,,,0.01,Wunderground v.1.15,2013-04-16 09:54:00,
2013-04-16 05:55:00,53.2,52.4,30.26,East,79,0.0,5.0,97,0.00,,,0.01,Wunderground v.1.15,2013-04-16 09:55:00,
2013-04-16 05:57:00,53.2,52.4,30.26,SSE,168,2.0,6.0,97,0.00,,,0.01,Wunderground v.1.15,2013-04-16 09:57:00,
2013-04-16 05:58:00,53.2,52.4,30.26,SSE,149,2.0,6.0,97,0.00,,,0.01,Wunderground v.1.15,2013-04-16 09:58:00,
2013-04-16 06:00:00,53.2,52.4,30.26,SSE,160,2.0,3.0,97,0.00,,,0.01,Wunderground v.1.15,2013-04-16 10:00:00,
2013-04-16 06:01:00,53.2,52.4,30.26,SSE,163,1.0,3.0,97,0.00,,,0.01,Wunderground v.1.15,2013-04-16 10:01:00,
2013-04-16 06:02:00,53.2,52.4,30.26,SSE,157,0.0,3.0,97,0.00,,,0.01,Wunderground v.1.15,2013-04-16 10:02:00,
2013-04-16 06:03:00,53.2,52.4,30.26,SE,142,5.0,6.0,97,0.00,,,0.01,Wunderground v.1.15,2013-04-16 10:03:00,
2013-04-16 06:04:00,53.2,52.4,30.26,South,178,3.0,6.0,97,0.00,,,0.01,Wunderground v.1.15,2013-04-16 10:04:00,
2013-04-16 06:05:00,53.2,52.4,30.26,SSE,147,1.0,6.0,97,0.00,,,0.01,Wunderground v.1.15,2013-04-16 10:05:00,
2013-04-16 06:06:00,53.2,52.4,30.26,SSE,147,0.0,6.0,97,0.00,,,0.01,Wunderground v.1.15,2013-04-16 10:06:00,
2013-04-16 06:07:00,53.2,52.4,30.26,SSE,147,2.0,6.0,97,0.00,,,0.01,Wunderground v.1.15,2013-04-16 10:07:00,
2013-04-16 06:09:00,53.2,52.4,30.26,SSE,159,1.0,6.0,97,0.00,,,0.01,Wunderground v.1.15,2013-04-16 10:09:00,
2013-04-16 06:10:00,53.2,52.4,30.26,South,175,1.0,2.0,97,0.00,,,0.01,Wunderground v.1.15,2013-04-16 10:10:00,
2013-04-16 06:12:00,53.2,52.4,30.26,SE,141,3.0,3.0,97,0.00,,,0.01,Wunderground v.1.15,2013-04-16 10:12:00,
2013-04-16 06:14:00,53.2,52.4,30.26,SSE,152,1.0,3.0,97,0.00,,,0.01,Wunderground v.1.15,2013-04-16 10:14:00,
2013-04-16 06:16:00,53.2,52.4,30.26,SSE,162,2.0,3.0,97,0.00,,,0.01,Wunderground v.1.15,2013-04-16 10:16:00,
2013-04-16 06:17:00,53.2,52.4,30.26,SSE,165,1.0,4.0,97,0.00,,,0.01,Wunderground v.1.15,2013-04-16 10:17:00,
2013-04-16 06:19:00,53.2,52.4,30.26,SSE,149,1.0,4.0,97,0.00,,,0.01,Wunderground v.1.15,2013-04-16 10:19:00,
2013-04-16 06:22:00,53.3,52.5,30.26,SE,127,2.0,5.0,97,0.00,,,0.01,Wunderground v.1.15,2013-04-16 10:22:00,
2013-04-16 06:23:00,53.2,52.4,30.27,East,91,2.0,5.0,97,0.00,,,0.01,Wunderground v.1.15,2013-04-16 10:23:00,
2013-04-16 06:24:00,53.2,52.4,30.26,ESE,113,2.0,5.0,97,0.00,,,0.01,Wunderground v.1.15,2013-04-16 10:24:00,
2013-04-16 06:27:00,53.3,52.5,30.27,South,188,0.0,5.0,97,0.00,,,0.01,Wunderground v.1.15,2013-04-16 10:27:00,
2013-04-16 06:28:00,53.3,52.5,30.27,East,92,1.0,5.0,97,0.00,,,0.01,Wunderground v.1.15,2013-04-16 10:28:00,
2013-04-16 06:30:00,53.3,52.5,30.27,SSE,165,0.0,1.0,97,0.00,,,0.01,Wunderground v.1.15,2013-04-16 10:30:00,
2013-04-16 06:32:00,53.3,52.5,30.27,South,169,0.0,2.0,97,0.00,,,0.01,Wunderground v.1.15,2013-04-16 10:32:00,
2013-04-16 06:33:00,53.3,52.5,30.27,South,169,0.0,2.0,97,0.00,,,0.01,Wunderground v.1.15,2013-04-16 10:33:00,
2013-04-16 06:35:00,53.4,52.6,30.27,SE,146,1.0,3.0,97,0.00,,,0.01,Wunderground v.1.15,2013-04-16 10:35:00,
2013-04-16 06:36:00,53.4,52.6,30.27,SE,146,0.0,3.0,97,0.00,,,0.01,Wunderground v.1.15,2013-04-16 10:36:00,
2013-04-16 06:37:00,53.4,52.6,30.27,SE,146,0.0,3.0,97,0.00,,,0.01,Wunderground v.1.15,2013-04-16 10:37:00,
2013-04-16 06:38:00,53.4,52.6,30.27,SE,142,1.0,3.0,97,0.00,,,0.01,Wunderground v.1.15,2013-04-16 10:38:00,
2013-04-16 06:40:00,53.4,52.6,30.27,SSE,155,0.0,3.0,97,0.00,,,0.01,Wunderground v.1.15,2013-04-16 10:40:00,
2013-04-16 06:41:00,53.5,52.7,30.28,SE,134,3.0,3.0,97,0.00,,,0.01,Wunderground v.1.15,2013-04-16 10:41:00,
2013-04-16 06:42:00,53.5,52.7,30.28,SSE,148,1.0,3.0,97,0.00,,,0.01,Wunderground v.1.15,2013-04-16 10:42:00,
2013-04-16 06:43:00,53.5,52.7,30.28,SSE,168,3.0,3.0,97,0.00,,,0.01,Wunderground v.1.15,2013-04-16 10:43:00,
2013-04-16 06:45:00,53.5,52.7,30.28,SE,146,2.0,4.0,97,0.00,,,0.01,Wunderground v.1.15,2013-04-16 10:45:00,
2013-04-16 06:47:00,53.5,52.7,30.28,SSE,151,4.0,5.0,97,0.00,,,0.01,Wunderground v.1.15,2013-04-16 10:47:00,
2013-04-16 06:48:00,53.6,52.8,30.28,SE,130,1.0,5.0,97,0.00,,,0.01,Wunderground v.1.15,2013-04-16 10:48:00,
2013-04-16 06:49:00,53.6,52.8,30.28,SSE,161,3.0,5.0,97,0.00,,,0.01,Wunderground v.1.15,2013-04-16 10:49:00,
2013-04-16 06:50:00,53.6,52.8,30.28,South,169,3.0,3.0,97,0.00,,,0.01,Wunderground v.1.15,2013-04-16 10:50:00,
2013-04-16 06:52:00,53.6,52.8,30.28,South,179,4.0,5.0,97,0.00,,,0.01,Wunderground v.1.15,2013-04-16 10:52:00,
2013-04-16 06:53:00,53.6,52.8,30.28,SSE,161,2.0,5.0,97,0.00,,,0.01,Wunderground v.1.15,2013-04-16 10:53:00,
2013-04-16 06:54:00,53.6,52.8,30.28,South,181,2.0,5.0,97,0.00,,,0.01,Wunderground v.1.15,2013-04-16 10:54:00,
2013-04-16 06:55:00,53.6,52.8,30.28,SSE,148,3.0,5.0,97,0.00,,,0.01,Wunderground v.1.15,2013-04-16 10:55:00,
2013-04-16 06:57:00,53.6,52.8,30.28,SSE,159,2.0,5.0,97,0.00,,,0.01,Wunderground v.1.15,2013-04-16 10:57:00,
2013-04-16 06:58:00,53.6,52.8,30.28,South,179,1.0,5.0,97,0.00,,,0.01,Wunderground v.1.15,2013-04-16 10:58:00,
2013-04-16 06:59:00,53.7,52.9,30.28,South,179,0.0,5.0,97,0.00,,,0.01,Wunderground v.1.15,2013-04-16 10:59:00,
2013-04-16 07:00:00,53.6,52.8,30.28,South,178,2.0,2.0,97,0.00,,,0.01,Wunderground v.1.15,2013-04-16 11:00:00,
2013-04-16 07:03:00,53.6,52.8,30.28,South,171,1.0,4.0,97,0.00,,,0.01,Wunderground v.1.15,2013-04-16 11:03:00,
2013-04-16 07:04:00,53.6,52.8,30.28,SSE,167,3.0,4.0,97,0.00,,,0.01,Wunderground v.1.15,2013-04-16 11:04:00,
2013-04-16 07:05:00,53.7,52.9,30.28,SSE,167,0.0,4.0,97,0.00,,,0.01,Wunderground v.1.15,2013-04-16 11:05:00,
2013-04-16 07:08:00,53.7,52.9,30.28,SSE,158,2.0,4.0,97,0.00,,,0.01,Wunderground v.1.15,2013-04-16 11:08:00,
2013-04-16 07:09:00,53.7,52.9,30.28,ESE,119,1.0,4.0,97,0.00,,,0.01,Wunderground v.1.15,2013-04-16 11:09:00,
2013-04-16 07:10:00,53.7,52.9,30.28,SSE,168,3.0,3.0,97,0.00,,,0.01,Wunderground v.1.15,2013-04-16 11:10:00,
2013-04-16 07:11:00,53.7,52.9,30.28,SSE,156,1.0,5.0,97,0.00,,,0.01,Wunderground v.1.15,2013-04-16 11:11:00,
2013-04-16 07:13:00,53.7,52.9,30.28,SSE,160,0.0,5.0,97,0.00,,,0.01,Wunderground v.1.15,2013-04-16 11:13:00,
2013-04-16 07:14:00,53.7,52.9,30.28,South,184,2.0,5.0,97,0.00,,,0.01,Wunderground v.1.15,2013-04-16 11:14:00,
2013-04-16 07:15:00,53.7,52.9,30.28,South,182,3.0,5.0,97,0.00,,,0.01,Wunderground v.1.15,2013-04-16 11:15:00,
2013-04-16 07:17:00,53.7,52.9,30.28,SSE,164,3.0,5.0,97,0.00,,,0.01,Wunderground v.1.15,2013-04-16 11:17:00,
2013-04-16 07:19:00,53.7,52.9,30.29,SSE,147,4.0,5.0,97,0.00,,,0.01,Wunderground v.1.15,2013-04-16 11:19:00,
2013-04-16 07:20:00,53.7,52.9,30.29,SE,144,3.0,3.0,97,0.00,,,0.01,Wunderground v.1.15,2013-04-16 11:20:00,
2013-04-16 07:21:00,53.7,52.9,30.29,SE,136,1.0,3.0,97,0.00,,,0.01,Wunderground v.1.15,2013-04-16 11:21:00,
2013-04-16 07:22:00,53.7,52.9,30.29,SSE,159,1.0,3.0,97,0.00,,,0.01,Wunderground v.1.15,2013-04-16 11:22:00,
2013-04-16 07:25:00,53.7,52.9,30.29,South,172,2.0,4.0,97,0.00,,,0.01,Wunderground v.1.15,2013-04-16 11:25:00,
2013-04-16 07:26:00,53.7,52.9,30.29,South,172,2.0,4.0,97,0.00,,,0.01,Wunderground v.1.15,2013-04-16 11:26:00,
2013-04-16 07:29:00,53.7,52.9,30.29,ESE,110,1.0,4.0,97,0.00,,,0.01,Wunderground v.1.15,2013-04-16 11:29:00,
2013-04-16 07:30:00,53.7,52.9,30.29,ESE,110,1.0,2.0,97,0.00,,,0.01,Wunderground v.1.15,2013-04-16 11:30:00,
2013-04-16 07:31:00,53.7,52.9,30.29,SE,140,1.0,2.0,97,0.00,,,0.01,Wunderground v.1.15,2013-04-16 11:31:00,
2013-04-16 07:34:00,53.8,53.0,30.29,SSE,167,1.0,2.0,97,0.00,,,0.01,Wunderground v.1.15,2013-04-16 11:34:00,
2013-04-16 07:35:00,53.8,53.0,30.29,SSE,167,0.0,2.0,97,0.00,,,0.01,Wunderground v.1.15,2013-04-16 11:35:00,
2013-04-16 07:37:00,53.8,53.0,30.29,East,96,0.0,2.0,97,0.00,,,0.01,Wunderground v.1.15,2013-04-16 11:37:00,
2013-04-16 07:39:00,53.8,53.0,30.29,SE,142,1.0,3.0,97,0.00,,,0.01,Wunderground v.1.15,2013-04-16 11:39:00,
2013-04-16 07:40:00,53.9,53.1,30.29,SSE,154,2.0,2.0,97,0.00,,,0.01,Wunderground v.1.15,2013-04-16 11:40:00,
2013-04-16 07:41:00,53.9,53.1,30.29,SSE,153,2.0,3.0,97,0.00,,,0.01,Wunderground v.1.15,2013-04-16 11:41:00,
2013-04-16 07:42:00,53.9,53.1,30.29,SE,138,2.0,3.0,97,0.00,,,0.01,Wunderground v.1.15,2013-04-16 11:42:00,
2013-04-16 07:44:00,53.9,53.1,30.29,South,175,0.0,3.0,97,0.00,,,0.01,Wunderground v.1.15,2013-04-16 11:44:00,
2013-04-16 07:45:00,53.9,53.1,30.30,South,182,2.0,3.0,97,0.00,,,0.01,Wunderground v.1.15,2013-04-16 11:45:00,
2013-04-16 07:46:00,54.0,53.2,30.30,South,182,1.0,3.0,97,0.00,,,0.01,Wunderground v.1.15,2013-04-16 11:46:00,
2013-04-16 07:47:00,53.9,53.1,30.30,South,182,1.0,3.0,97,0.00,,,0.01,Wunderground v.1.15,2013-04-16 11:47:00,
2013-04-16 07:50:00,54.0,53.4,30.30,SSE,160,2.0,3.0,98,0.00,,,0.01,Wunderground v.1.15,2013-04-16 11:50:00,
2013-04-16 07:51:00,54.0,53.4,30.30,SSW,202,1.0,3.0,98,0.00,,,0.01,Wunderground v.1.15,2013-04-16 11:51:00,
2013-04-16 07:52:00,54.0,53.4,30.30,South,188,2.0,4.0,98,0.00,,,0.01,Wunderground v.1.15,2013-04-16 11:52:00,
2013-04-16 07:55:00,54.0,53.4,30.30,SE,135,4.0,7.0,98,0.00,,,0.01,Wunderground v.1.15,2013-04-16 11:55:00,
2013-04-16 07:56:00,54.0,53.4,30.30,SSE,159,2.0,7.0,98,0.00,,,0.01,Wunderground v.1.15,2013-04-16 11:56:00,
2013-04-16 07:57:00,54.0,53.4,30.30,SSE,159,1.0,7.0,98,0.00,,,0.01,Wunderground v.1.15,2013-04-16 11:57:00,
2013-04-16 07:58:00,54.0,53.4,30.30,SSE,159,2.0,7.0,98,0.00,,,0.01,Wunderground v.1.15,2013-04-16 11:58:00,
2013-04-16 08:00:00,54.0,53.4,30.30,SSE,151,3.0,4.0,98,0.00,,,0.01,Wunderground v.1.15,2013-04-16 12:00:00,
2013-04-16 08:01:00,54.1,53.5,30.30,SSE,151,1.0,4.0,98,0.00,,,0.01,Wunderground v.1.15,2013-04-16 12:01:00,
2013-04-16 08:02:00,54.1,53.5,30.30,SSE,151,1.0,4.0,98,0.00,,,0.01,Wunderground v.1.15,2013-04-16 12:02:00,
2013-04-16 08:04:00,54.1,53.5,30.30,SE,143,4.0,4.0,98,0.00,,,0.01,Wunderground v.1.15,2013-04-16 12:04:00,
2013-04-16 08:05:00,54.1,53.5,30.30,SSE,159,2.0,4.0,98,0.00,,,0.01,Wunderground v.1.15,2013-04-16 12:05:00,
2013-04-16 08:06:00,54.1,53.5,30.30,SSE,168,2.0,4.0,98,0.00,,,0.01,Wunderground v.1.15,2013-04-16 12:06:00,
2013-04-16 08:07:00,54.1,53.5,30.30,SSE,159,2.0,4.0,98,0.00,,,0.01,Wunderground v.1.15,2013-04-16 12:07:00,
2013-04-16 08:08:00,54.1,53.5,30.30,South,174,3.0,4.0,98,0.00,,,0.01,Wunderground v.1.15,2013-04-16 12:08:00,
2013-04-16 08:09:00,54.1,53.5,30.30,SSE,149,2.0,4.0,98,0.00,,,0.01,Wunderground v.1.15,2013-04-16 12:09:00,
2013-04-16 08:10:00,54.2,53.6,30.30,SE,145,3.0,4.0,98,0.00,,,0.01,Wunderground v.1.15,2013-04-16 12:10:00,
2013-04-16 08:12:00,54.1,53.5,30.30,SE,141,4.0,4.0,98,0.00,,,0.01,Wunderground v.1.15,2013-04-16 12:12:00,
2013-04-16 08:14:00,54.2,53.6,30.30,South,174,2.0,6.0,98,0.00,,,0.01,Wunderground v.1.15,2013-04-16 12:14:00,
2013-04-16 08:17:00,54.2,53.6,30.30,SSE,154,2.0,6.0,98,0.00,,,0.01,Wunderground v.1.15,2013-04-16 12:17:00,
2013-04-16 08:18:00,54.2,53.6,30.30,SSE,154,2.0,6.0,98,0.00,,,0.01,Wunderground v.1.15,2013-04-16 12:18:00,
2013-04-16 08:19:00,54.2,53.6,30.31,SSE,161,4.0,6.0,98,0.00,,,0.01,Wunderground v.1.15,2013-04-16 12:19:00,
2013-04-16 08:23:00,54.2,53.6,30.31,South,175,2.0,3.0,98,0.00,,,0.01,Wunderground v.1.15,2013-04-16 12:23:00,
2013-04-16 08:24:00,54.2,53.6,30.31,South,184,3.0,5.0,98,0.00,,,0.01,Wunderground v.1.15,2013-04-16 12:24:00,
2013-04-16 08:28:00,54.3,53.7,30.31,SSE,157,1.0,5.0,98,0.00,,,0.01,Wunderground v.1.15,2013-04-16 12:28:00,
2013-04-16 08:29:00,54.3,53.5,30.31,SSE,157,3.0,5.0,97,0.00,,,0.01,Wunderground v.1.15,2013-04-16 12:29:00,
2013-04-16 08:30:00,54.3,53.5,30.31,SSE,157,2.0,2.0,97,0.00,,,0.01,Wunderground v.1.15,2013-04-16 12:30:00,
2013-04-16 08:33:00,54.4,53.6,30.31,South,175,2.0,3.0,97,0.00,,,0.01,Wunderground v.1.15,2013-04-16 12:33:00,
2013-04-16 08:34:00,54.4,53.6,30.31,South,175,1.0,3.0,97,0.00,,,0.01,Wunderground v.1.15,2013-04-16 12:34:00,
2013-04-16 08:35:00,54.4,53.6,30.31,South,175,0.0,3.0,97,0.00,,,0.01,Wunderground v.1.15,2013-04-16 12:35:00,
2013-04-16 08:39:00,54.5,53.7,30.31,South,187,4.0,4.0,97,0.00,,,0.01,Wunderground v.1.15,2013-04-16 12:39:00,
2013-04-16 08:40:00,54.5,53.7,30.31,SSW,192,2.0,3.0,97,0.00,,,0.01,Wunderground v.1.15,2013-04-16 12:40:00,
2013-04-16 08:44:00,54.5,53.7,30.31,SSE,151,2.0,3.0,97,0.00,,,0.01,Wunderground v.1.15,2013-04-16 12:44:00,
2013-04-16 08:45:00,54.5,53.7,30.31,South,173,2.0,3.0,97,0.00,,,0.01,Wunderground v.1.15,2013-04-16 12:45:00,
2013-04-16 08:49:00,54.6,54.0,30.31,South,171,3.0,5.0,98,0.00,,,0.01,Wunderground v.1.15,2013-04-16 12:49:00,
2013-04-16 08:50:00,54.6,54.0,30.31,SSE,162,3.0,3.0,98,0.00,,,0.01,Wunderground v.1.15,2013-04-16 12:50:00,
2013-04-16 08:54:00,54.7,54.1,30.32,SSE,159,2.0,4.0,98,0.00,,,0.01,Wunderground v.1.15,2013-04-16 12:54:00,
2013-04-16 08:55:00,54.7,54.1,30.32,South,173,3.0,4.0,98,0.00,,,0.01,Wunderground v.1.15,2013-04-16 12:55:00,
2013-04-16 08:56:00,54.8,54.2,30.32,SSE,158,2.0,4.0,98,0.00,,,0.01,Wunderground v.1.15,2013-04-16 12:56:00,
2013-04-16 08:59:00,54.9,54.3,30.32,SE,140,4.0,6.0,98,0.00,,,0.01,Wunderground v.1.15,2013-04-16 12:59:00,
2013-04-16 09:00:00,54.9,54.3,30.32,SE,136,4.0,5.0,98,0.00,,,0.01,Wunderground v.1.15,2013-04-16 13:00:00,
2013-04-16 09:01:00,55.0,54.4,30.32,SSE,159,2.0,5.0,98,0.00,,,0.01,Wunderground v.1.15,2013-04-16 13:01:00,
2013-04-16 09:05:00,55.0,54.4,30.32,South,183,3.0,7.0,98,0.00,,,0.01,Wunderground v.1.15,2013-04-16 13:05:00,
2013-04-16 09:06:00,55.0,54.4,30.32,South,182,3.0,7.0,98,0.00,,,0.01,Wunderground v.1.15,2013-04-16 13:06:00,
2013-04-16 09:07:00,55.0,54.4,30.32,SSE,165,1.0,7.0,98,0.00,,,0.01,Wunderground v.1.15,2013-04-16 13:07:00,
2013-04-16 09:10:00,55.1,54.5,30.32,SE,146,2.0,3.0,98,0.00,,,0.01,Wunderground v.1.15,2013-04-16 13:10:00,
2013-04-16 09:11:00,55.1,54.5,30.32,South,172,2.0,3.0,98,0.00,,,0.01,Wunderground v.1.15,2013-04-16 13:11:00,
2013-04-16 09:12:00,55.2,54.6,30.32,SSE,157,3.0,4.0,98,0.00,,,0.01,Wunderground v.1.15,2013-04-16 13:12:00,
2013-04-16 09:15:00,55.4,54.8,30.32,SSE,150,3.0,4.0,98,0.00,,,0.01,Wunderground v.1.15,2013-04-16 13:15:00,
2013-04-16 09:16:00,55.4,54.8,30.32,SE,136,3.0,4.0,98,0.00,,,0.01,Wunderground v.1.15,2013-04-16 13:16:00,
2013-04-16 09:17:00,55.4,54.8,30.32,South,171,3.0,4.0,98,0.00,,,0.01,Wunderground v.1.15,2013-04-16 13:17:00,
2013-04-16 09:21:00,55.4,54.8,30.32,SE,146,4.0,5.0,98,0.00,,,0.01,Wunderground v.1.15,2013-04-16 13:21:00,
2013-04-16 09:22:00,55.4,54.8,30.32,SE,126,1.0,5.0,98,0.00,,,0.01,Wunderground v.1.15,2013-04-16 13:22:00,
2013-04-16 09:23:00,55.4,54.8,30.32,SSE,165,2.0,5.0,98,0.00,,,0.01,Wunderground v.1.15,2013-04-16 13:23:00,
2013-04-16 09:27:00,55.5,54.9,30.32,SSE,149,2.0,7.0,98,0.00,,,0.01,Wunderground v.1.15,2013-04-16 13:27:00,
2013-04-16 09:28:00,55.6,55.0,30.32,SSE,157,4.0,7.0,98,0.00,,,0.01,Wunderground v.1.15,2013-04-16 13:28:00,
2013-04-16 09:32:00,55.9,55.3,30.32,SE,130,2.0,9.0,98,0.00,,,0.01,Wunderground v.1.15,2013-04-16 13:32:00,
2013-04-16 09:33:00,55.9,55.3,30.32,SSE,149,6.0,9.0,98,0.00,,,0.01,Wunderground v.1.15,2013-04-16 13:33:00,
2013-04-16 09:34:00,56.0,55.4,30.32,SSE,160,3.0,9.0,98,0.00,,,0.01,Wunderground v.1.15,2013-04-16 13:34:00,
2013-04-16 09:37:00,56.4,55.8,30.32,SSE,163,2.0,9.0,98,0.00,,,0.01,Wunderground v.1.15,2013-04-16 13:37:00,
2013-04-16 09:38:00,56.4,55.8,30.32,South,188,2.0,9.0,98,0.00,,,0.01,Wunderground v.1.15,2013-04-16 13:38:00,
2013-04-16 09:39:00,56.4,55.8,30.32,South,171,2.0,9.0,98,0.00,,,0.01,Wunderground v.1.15,2013-04-16 13:39:00,
2013-04-16 09:42:00,56.6,56.0,30.32,SE,144,7.0,7.0,98,0.00,,,0.01,Wunderground v.1.15,2013-04-16 13:42:00,
2013-04-16 09:43:00,56.6,56.0,30.32,SSE,163,4.0,8.0,98,0.00,,,0.01,Wunderground v.1.15,2013-04-16 13:43:00,
2013-04-16 09:44:00,56.6,56.0,30.32,South,174,3.0,8.0,98,0.00,,,0.01,Wunderground v.1.15,2013-04-16 13:44:00,
2013-04-16 09:47:00,56.7,55.9,30.32,SSE,162,2.0,8.0,97,0.00,,,0.01,Wunderground v.1.15,2013-04-16 13:47:00,
2013-04-16 09:48:00,56.7,55.9,30.32,SSW,207,0.0,8.0,97,0.00,,,0.01,Wunderground v.1.15,2013-04-16 13:48:00,
2013-04-16 09:49:00,56.7,55.9,30.32,South,171,1.0,8.0,97,0.00,,,0.01,Wunderground v.1.15,2013-04-16 13:49:00,
2013-04-16 09:52:00,56.8,56.0,30.33,South,170,3.0,3.0,97,0.00,,,0.01,Wunderground v.1.15,2013-04-16 13:52:00,
2013-04-16 09:53:00,56.9,56.1,30.33,SSE,167,3.0,3.0,97,0.00,,,0.01,Wunderground v.1.15,2013-04-16 13:53:00,
2013-04-16 09:54:00,56.9,56.1,30.33,SSE,157,2.0,5.0,97,0.00,,,0.01,Wunderground v.1.15,2013-04-16 13:54:00,
2013-04-16 09:55:00,56.9,56.1,30.33,SSE,161,2.0,5.0,97,0.00,,,0.01,Wunderground v.1.15,2013-04-16 13:55:00,
2013-04-16 09:57:00,56.8,56.0,30.33,South,177,4.0,5.0,97,0.00,,,0.01,Wunderground v.1.15,2013-04-16 13:57:00,
2013-04-16 09:58:00,56.8,56.0,30.33,South,177,5.0,5.0,97,0.00,,,0.01,Wunderground v.1.15,2013-04-16 13:58:00,
2013-04-16 09:59:00,56.8,55.7,30.33,South,184,4.0,5.0,96,0.00,,,0.01,Wunderground v.1.15,2013-04-16 13:59:00,
2013-04-16 10:00:00,56.9,55.8,30.33,SSW,195,3.0,3.0,96,0.00,,,0.00,Wunderground v.1.15,2013-04-16 14:00:00,
2013-04-16 10:02:00,55.9,54.8,30.33,South,178,2.0,5.0,96,0.00,,,0.00,Wunderground v.1.15,2013-04-16 14:02:00,
2013-04-16 10:03:00,55.9,54.8,30.33,South,178,1.0,5.0,96,0.00,,,0.00,Wunderground v.1.15,2013-04-16 14:03:00,
2013-04-16 10:04:00,55.9,54.8,30.33,South,175,4.0,5.0,96,0.00,,,0.00,Wunderground v.1.15,2013-04-16 14:04:00,
2013-04-16 10:05:00,55.9,54.8,30.33,SSW,196,3.0,5.0,96,0.00,,,0.00,Wunderground v.1.15,2013-04-16 14:05:00,
2013-04-16 10:07:00,55.9,54.8,30.33,South,173,3.0,7.0,96,0.00,,,0.00,Wunderground v.1.15,2013-04-16 14:07:00,
2013-04-16 10:08:00,55.9,54.8,30.33,South,173,3.0,7.0,96,0.00,,,0.00,Wunderground v.1.15,2013-04-16 14:08:00,
2013-04-16 10:09:00,55.8,54.7,30.33,South,185,1.0,7.0,96,0.00,,,0.00,Wunderground v.1.15,2013-04-16 14:09:00,
2013-04-16 10:10:00,55.9,54.8,30.33,SE,140,4.0,4.0,96,0.00,,,0.00,Wunderground v.1.15,2013-04-16 14:10:00,
2013-04-16 10:13:00,56.0,54.9,30.33,SSE,168,2.0,5.0,96,0.00,,,0.00,Wunderground v.1.15,2013-04-16 14:13:00,
2013-04-16 10:14:00,56.0,54.9,30.33,SSE,159,2.0,5.0,96,0.00,,,0.00,Wunderground v.1.15,2013-04-16 14:14:00,
2013-04-16 10:15:00,56.0,54.9,30.33,ESE,104,2.0,5.0,96,0.00,,,0.00,Wunderground v.1.15,2013-04-16 14:15:00,
2013-04-16 10:18:00,56.1,55.0,30.33,SSE,163,2.0,6.0,96,0.00,,,0.00,Wunderground v.1.15,2013-04-16 14:18:00,
2013-04-16 10:19:00,56.1,55.0,30.33,SSE,165,2.0,6.0,96,0.00,,,0.00,Wunderground v.1.15,2013-04-16 14:19:00,
2013-04-16 10:21:00,56.3,55.2,30.33,SSE,159,4.0,5.0,96,0.00,,,0.00,Wunderground v.1.15,2013-04-16 14:21:00,
2013-04-16 10:23:00,56.5,55.4,30.33,South,186,4.0,5.0,96,0.00,,,0.00,Wunderground v.1.15,2013-04-16 14:23:00,
2013-04-16 10:24:00,56.5,55.4,30.33,South,172,2.0,5.0,96,0.00,,,0.00,Wunderground v.1.15,2013-04-16 14:24:00,
2013-04-16 10:26:00,56.5,55.4,30.33,South,175,5.0,5.0,96,0.00,,,0.00,Wunderground v.1.15,2013-04-16 14:26:00,
2013-04-16 10:27:00,56.6,55.5,30.33,South,177,3.0,6.0,96,0.00,,,0.00,Wunderground v.1.15,2013-04-16 14:27:00,
2013-04-16 10:29:00,56.6,55.5,30.33,SE,146,4.0,6.0,96,0.00,,,0.00,Wunderground v.1.15,2013-04-16 14:29:00,
2013-04-16 10:31:00,56.7,55.3,30.33,SSE,150,4.0,4.0,95,0.00,,,0.00,Wunderground v.1.15,2013-04-16 14:31:00,
2013-04-16 10:32:00,56.8,55.4,30.33,SSE,160,2.0,5.0,95,0.00,,,0.00,Wunderground v.1.15,2013-04-16 14:32:00,
2013-04-16 10:34:00,56.9,55.5,30.33,SW,217,1.0,5.0,95,0.00,,,0.00,Wunderground v.1.15,2013-04-16 14:34:00,
2013-04-16 10:37:00,56.8,55.4,30.33,SSE,166,2.0,5.0,95,0.00,,,0.00,Wunderground v.1.15,2013-04-16 14:37:00,
2013-04-16 10:38:00,56.9,55.5,30.33,SSE,167,6.0,6.0,95,0.00,,,0.00,Wunderground v.1.15,2013-04-16 14:38:00,
2013-04-16 10:40:00,56.9,55.5,30.33,SE,143,4.0,4.0,95,0.00,,,0.00,Wunderground v.1.15,2013-04-16 14:40:00,
2013-04-16 10:42:00,56.9,55.5,30.33,SSW,194,4.0,5.0,95,0.00,,,0.00,Wunderground v.1.15,2013-04-16 14:42:00,
2013-04-16 10:43:00,56.9,55.5,30.33,SSE,163,2.0,5.0,95,0.00,,,0.00,Wunderground v.1.15,2013-04-16 14:43:00,
2013-04-16 10:45:00,57.0,55.3,30.34,WSW,238,1.0,5.0,94,0.00,,,0.00,Wunderground v.1.15,2013-04-16 14:45:00,
2013-04-16 10:47:00,57.1,55.4,30.33,WSW,244,1.0,5.0,94,0.00,,,0.00,Wunderground v.1.15,2013-04-16 14:47:00,
2013-04-16 10:48:00,57.2,55.5,30.33,South,177,4.0,5.0,94,0.00,,,0.00,Wunderground v.1.15,2013-04-16 14:48:00,
2013-04-16 10:50:00,57.4,55.7,30.33,WSW,250,0.0,3.0,94,0.00,,,0.00,Wunderground v.1.15,2013-04-16 14:50:00,
2013-04-16 10:51:00,57.4,55.7,30.33,WNW,292,0.0,3.0,94,0.00,,,0.00,Wunderground v.1.15,2013-04-16 14:51:00,
2013-04-16 10:52:00,57.5,55.8,30.33,WSW,238,1.0,4.0,94,0.00,,,0.00,Wunderground v.1.15,2013-04-16 14:52:00,
2013-04-16 10:53:00,57.7,56.0,30.33,SSE,150,0.0,4.0,94,0.00,,,0.00,Wunderground v.1.15,2013-04-16 14:53:00,
2013-04-16 10:55:00,57.8,55.8,30.33,South,184,5.0,7.0,93,0.00,,,0.00,Wunderground v.1.15,2013-04-16 14:55:00,
2013-04-16 10:56:00,57.8,55.8,30.33,South,173,4.0,7.0,93,0.00,,,0.00,Wunderground v.1.15,2013-04-16 14:56:00,
2013-04-16 10:57:00,57.9,55.9,30.33,SW,228,1.0,7.0,93,0.00,,,0.00,Wunderground v.1.15,2013-04-16 14:57:00,
2013-04-16 10:58:00,57.9,55.6,30.33,SSE,167,3.0,7.0,92,0.00,,,0.00,Wunderground v.1.15,2013-04-16 14:58:00,
2013-04-16 10:59:00,58.0,55.7,30.33,SSE,161,0.0,7.0,92,0.00,,,0.00,Wunderground v.1.15,2013-04-16 14:59:00,
2013-04-16 11:00:00,58.1,55.8,30.33,NW,308,4.0,5.0,92,0.00,,,0.00,Wunderground v.1.15,2013-04-16 15:00:00,
2013-04-16 11:01:00,58.1,55.8,30.33,South,178,3.0,5.0,92,0.00,,,0.00,Wunderground v.1.15,2013-04-16 15:01:00,
2013-04-16 11:03:00,58.3,56.0,30.33,WNW,288,2.0,5.0,92,0.00,,,0.00,Wunderground v.1.15,2013-04-16 15:03:00,
2013-04-16 11:04:00,58.4,56.1,30.33,West,261,5.0,5.0,92,0.00,,,0.00,Wunderground v.1.15,2013-04-16 15:04:00,
2013-04-16 11:06:00,58.6,56.0,30.33,WSW,252,1.0,6.0,91,0.00,,,0.00,Wunderground v.1.15,2013-04-16 15:06:00,
2013-04-16 11:07:00,58.7,55.8,30.33,WSW,239,1.0,6.0,90,0.00,,,0.00,Wunderground v.1.15,2013-04-16 15:07:00,
2013-04-16 11:09:00,59.0,56.1,30.33,SSW,212,5.0,6.0,90,0.00,,,0.00,Wunderground v.1.15,2013-04-16 15:09:00,
2013-04-16 11:12:00,59.4,56.2,30.33,SSE,148,3.0,7.0,89,0.00,,,0.00,Wunderground v.1.15,2013-04-16 15:12:00,
2013-04-16 11:14:00,59.8,56.6,30.33,SW,219,2.0,8.0,89,0.00,,,0.00,Wunderground v.1.15,2013-04-16 15:14:00,
2013-04-16 11:17:00,60.1,56.2,30.33,SW,214,4.0,8.0,87,0.00,,,0.00,Wunderground v.1.15,2013-04-16 15:17:00,
2013-04-16 11:19:00,60.6,56.7,30.33,SW,230,5.0,8.0,87,0.00,,,0.00,Wunderground v.1.15,2013-04-16 15:19:00,
2013-04-16 11:22:00,60.8,56.3,30.33,WSW,240,4.0,4.0,85,0.00,,,0.00,Wunderground v.1.15,2013-04-16 15:22:00,
2013-04-16 11:24:00,61.1,55.9,30.33,WSW,257,3.0,6.0,83,0.00,,,0.00,Wunderground v.1.15,2013-04-16 15:24:00,
2013-04-16 11:25:00,61.2,56.0,30.33,WSW,249,5.0,8.0,83,0.00,,,0.00,Wunderground v.1.15,2013-04-16 15:25:00,
2013-04-16 11:28:00,61.5,56.3,30.33,SW,220,4.0,10.0,83,0.00,,,0.00,Wunderground v.1.15,2013-04-16 15:28:00,
2013-04-16 11:30:00,61.8,55.9,30.33,SW,233,3.0,4.0,81,0.00,,,0.00,Wunderground v.1.15,2013-04-16 15:30:00,
2013-04-16 11:33:00,61.9,56.0,30.33,WSW,252,0.0,7.0,81,0.00,,,0.00,Wunderground v.1.15,2013-04-16 15:33:00,
2013-04-16 11:35:00,62.0,56.4,30.33,SW,217,4.0,7.0,82,0.00,,,0.00,Wunderground v.1.15,2013-04-16 15:35:00,
2013-04-16 11:38:00,62.0,55.8,30.33,SSW,209,5.0,8.0,80,0.00,,,0.00,Wunderground v.1.15,2013-04-16 15:38:00,
2013-04-16 11:40:00,62.0,55.8,30.33,South,171,2.0,4.0,80,0.00,,,0.00,Wunderground v.1.15,2013-04-16 15:40:00,
2013-04-16 11:41:00,62.0,55.8,30.33,WSW,250,3.0,5.0,80,0.00,,,0.00,Wunderground v.1.15,2013-04-16 15:41:00,
2013-04-16 11:43:00,62.1,55.9,30.33,WSW,248,9.0,9.0,80,0.00,,,0.00,Wunderground v.1.15,2013-04-16 15:43:00,
2013-04-16 11:44:00,62.2,56.0,30.33,SSW,213,1.0,9.0,80,0.00,,,0.00,Wunderground v.1.15,2013-04-16 15:44:00,
2013-04-16 11:45:00,62.2,56.0,30.33,SW,220,2.0,9.0,80,0.00,,,0.00,Wunderground v.1.15,2013-04-16 15:45:00,
2013-04-16 11:46:00,62.2,56.0,30.33,SSW,193,2.0,9.0,80,0.00,,,0.00,Wunderground v.1.15,2013-04-16 15:46:00,
2013-04-16 11:48:00,62.4,55.8,30.33,West,259,5.0,9.0,79,0.00,,,0.00,Wunderground v.1.15,2013-04-16 15:48:00,
2013-04-16 11:49:00,62.4,55.8,30.33,WSW,243,5.0,9.0,79,0.00,,,0.00,Wunderground v.1.15,2013-04-16 15:49:00,
2013-04-16 11:51:00,62.5,55.9,30.33,WSW,248,4.0,7.0,79,0.00,,,0.00,Wunderground v.1.15,2013-04-16 15:51:00,
2013-04-16 11:52:00,62.6,56.0,30.33,South,172,1.0,8.0,79,0.00,,,0.00,Wunderground v.1.15,2013-04-16 15:52:00,
2013-04-16 11:54:00,62.7,56.1,30.33,West,279,4.0,8.0,79,0.00,,,0.00,Wunderground v.1.15,2013-04-16 15:54:00,
2013-04-16 11:56:00,62.9,56.3,30.33,WNW,297,4.0,8.0,79,0.00,,,0.00,Wunderground v.1.15,2013-04-16 15:56:00,
2013-04-16 11:57:00,62.9,55.6,30.33,WSW,244,5.0,8.0,77,0.00,,,0.00,Wunderground v.1.15,2013-04-16 15:57:00,
2013-04-16 11:59:00,63.0,56.0,30.33,WSW,241,2.0,9.0,78,0.00,,,0.00,Wunderground v.1.15,2013-04-16 15:59:00,
2013-04-16 12:01:00,63.0,56.0,30.33,WSW,242,4.0,8.0,78,0.00,,,0.00,Wunderground v.1.15,2013-04-16 16:01:00,
2013-04-16 12:02:00,63.1,56.1,30.33,West,263,2.0,8.0,78,0.00,,,0.00,Wunderground v.1.15,2013-04-16 16:02:00,
2013-04-16 12:03:00,63.1,56.1,30.33,West,263,3.0,8.0,78,0.00,,,0.00,Wunderground v.1.15,2013-04-16 16:03:00,
2013-04-16 12:04:00,63.2,56.2,30.33,SW,235,2.0,8.0,78,0.00,,,0.00,Wunderground v.1.15,2013-04-16 16:04:00,
2013-04-16 12:05:00,63.3,56.3,30.33,SW,221,8.0,8.0,78,0.00,,,0.00,Wunderground v.1.15,2013-04-16 16:05:00,
2013-04-16 12:06:00,63.4,56.1,30.33,WSW,242,5.0,8.0,77,0.00,,,0.00,Wunderground v.1.15,2013-04-16 16:06:00,
2013-04-16 12:07:00,63.5,56.5,30.33,SW,236,4.0,8.0,78,0.00,,,0.00,Wunderground v.1.15,2013-04-16 16:07:00,
2013-04-16 12:08:00,63.5,56.2,30.33,SW,236,6.0,8.0,77,0.00,,,0.00,Wunderground v.1.15,2013-04-16 16:08:00,
2013-04-16 12:09:00,63.6,56.3,30.33,South,186,1.0,8.0,77,0.00,,,0.00,Wunderground v.1.15,2013-04-16 16:09:00,
2013-04-16 12:10:00,63.7,56.4,30.32,West,281,3.0,5.0,77,0.00,,,0.00,Wunderground v.1.15,2013-04-16 16:10:00,
2013-04-16 12:12:00,63.8,56.4,30.32,South,173,7.0,7.0,77,0.00,,,0.00,Wunderground v.1.15,2013-04-16 16:12:00,
2013-04-16 12:13:00,64.0,56.6,30.33,South,185,7.0,8.0,77,0.00,,,0.00,Wunderground v.1.15,2013-04-16 16:13:00,
2013-04-16 12:15:00,64.1,56.7,30.32,South,188,6.0,9.0,77,0.00,,,0.00,Wunderground v.1.15,2013-04-16 16:15:00,
2013-04-16 12:17:00,64.3,56.9,30.33,SE,132,2.0,9.0,77,0.00,,,0.00,Wunderground v.1.15,2013-04-16 16:17:00,
2013-04-16 12:18:00,64.3,56.9,30.32,SSE,161,5.0,9.0,77,0.00,,,0.00,Wunderground v.1.15,2013-04-16 16:18:00,
2013-04-16 12:20:00,64.3,57.3,30.32,WSW,257,3.0,5.0,78,0.00,,,0.00,Wunderground v.1.15,2013-04-16 16:20:00,
2013-04-16 12:22:00,64.5,57.1,30.32,SW,232,0.0,6.0,77,0.00,,,0.00,Wunderground v.1.15,2013-04-16 16:22:00,
2013-04-16 12:23:00,64.6,57.2,30.32,SW,231,0.0,6.0,77,0.00,,,0.00,Wunderground v.1.15,2013-04-16 16:23:00,
2013-04-16 12:24:00,64.7,57.0,30.32,SSW,200,1.0,6.0,76,0.00,,,0.00,Wunderground v.1.15,2013-04-16 16:24:00,
2013-04-16 12:25:00,64.8,56.3,30.32,South,171,4.0,6.0,74,0.00,,,0.00,Wunderground v.1.15,2013-04-16 16:25:00,
2013-04-16 12:27:00,65.2,57.8,30.32,SSW,195,3.0,9.0,77,0.00,,,0.00,Wunderground v.1.15,2013-04-16 16:27:00,
2013-04-16 12:28:00,65.3,57.9,30.32,SSE,153,4.0,9.0,77,0.00,,,0.00,Wunderground v.1.15,2013-04-16 16:28:00,
2013-04-16 12:29:00,65.6,56.7,30.32,SE,139,4.0,9.0,73,0.00,,,0.00,Wunderground v.1.15,2013-04-16 16:29:00,
2013-04-16 12:30:00,65.6,56.7,30.32,WSW,243,3.0,6.0,73,0.00,,,0.00,Wunderground v.1.15,2013-04-16 16:30:00,
2013-04-16 12:31:00,65.6,56.7,30.32,SW,229,6.0,10.0,73,0.00,,,0.00,Wunderground v.1.15,2013-04-16 16:31:00,
2013-04-16 12:32:00,65.5,55.8,30.32,SSW,209,7.0,10.0,71,0.00,,,0.00,Wunderground v.1.15,2013-04-16 16:32:00,
2013-04-16 12:33:00,65.4,56.1,30.32,SW,232,7.0,10.0,72,0.00,,,0.00,Wunderground v.1.15,2013-04-16 16:33:00,
2013-04-16 12:34:00,65.4,56.9,30.32,WSW,244,2.0,10.0,74,0.00,,,0.00,Wunderground v.1.15,2013-04-16 16:34:00,
2013-04-16 12:36:00,65.4,56.5,30.32,WSW,250,1.0,10.0,73,0.00,,,0.00,Wunderground v.1.15,2013-04-16 16:36:00,
2013-04-16 12:38:00,65.4,56.5,30.32,WSW,253,3.0,10.0,73,0.00,,,0.00,Wunderground v.1.15,2013-04-16 16:38:00,
2013-04-16 12:39:00,65.4,56.1,30.32,SW,214,3.0,10.0,72,0.00,,,0.00,Wunderground v.1.15,2013-04-16 16:39:00,
2013-04-16 12:41:00,65.5,56.6,30.32,WNW,300,3.0,4.0,73,0.00,,,0.00,Wunderground v.1.15,2013-04-16 16:41:00,
2013-04-16 12:43:00,65.6,56.7,30.32,WSW,247,5.0,11.0,73,0.00,,,0.00,Wunderground v.1.15,2013-04-16 16:43:00,
2013-04-16 12:45:00,65.7,56.0,30.32,WSW,242,6.0,11.0,71,0.00,,,0.00,Wunderground v.1.15,2013-04-16 16:45:00,
2013-04-16 12:46:00,65.8,56.1,30.32,South,191,3.0,11.0,71,0.00,,,0.00,Wunderground v.1.15,2013-04-16 16:46:00,
2013-04-16 12:47:00,65.9,56.2,30.32,SW,227,3.0,11.0,71,0.00,,,0.00,Wunderground v.1.15,2013-04-16 16:47:00,
2013-04-16 12:48:00,65.9,55.8,30.31,SSE,165,1.0,11.0,70,0.00,,,0.00,Wunderground v.1.15,2013-04-16 16:48:00,
2013-04-16 12:50:00,66.0,56.3,30.31,SSE,168,2.0,3.0,71,0.00,,,0.00,Wunderground v.1.15,2013-04-16 16:50:00,
2013-04-16 12:52:00,66.1,56.0,30.32,South,175,5.0,8.0,70,0.00,,,0.00,Wunderground v.1.15,2013-04-16 16:52:00,
2013-04-16 12:53:00,66.2,56.5,30.31,East,90,5.0,8.0,71,0.00,,,0.00,Wunderground v.1.15,2013-04-16 16:53:00,
2013-04-16 12:55:00,66.1,57.9,30.31,SE,144,4.0,8.0,75,0.00,,,0.00,Wunderground v.1.15,2013-04-16 16:55:00,
2013-04-16 12:57:00,65.9,57.7,30.31,SE,138,3.0,8.0,75,0.00,,,0.00,Wunderground v.1.15,2013-04-16 16:57:00,
2013-04-16 12:58:00,65.8,58.0,30.31,East,86,1.0,8.0,76,0.00,,,0.00,Wunderground v.1.15,2013-04-16 16:58:00,
2013-04-16 12:59:00,65.7,57.6,30.31,South,184,2.0,8.0,75,0.00,,,0.00,Wunderground v.1.15,2013-04-16 16:59:00,
2013-04-16 13:00:00,65.6,57.8,30.31,East,98,1.0,5.0,76,0.00,,,0.00,Wunderground v.1.15,2013-04-16 17:00:00,
2013-04-16 13:02:00,65.4,57.6,30.31,SE,132,5.0,6.0,76,0.00,,,0.00,Wunderground v.1.15,2013-04-16 17:02:00,
2013-04-16 13:03:00,65.4,57.6,30.31,SSE,159,0.0,6.0,76,0.00,,,0.00,Wunderground v.1.15,2013-04-16 17:03:00,
2013-04-16 13:04:00,65.3,57.5,30.31,SSE,165,3.0,6.0,76,0.00,,,0.00,Wunderground v.1.15,2013-04-16 17:04:00,
2013-04-16 13:06:00,65.3,57.5,30.31,South,184,3.0,6.0,76,0.00,,,0.00,Wunderground v.1.15,2013-04-16 17:06:00,
2013-04-16 13:07:00,65.4,57.6,30.31,South,178,1.0,6.0,76,0.00,,,0.00,Wunderground v.1.15,2013-04-16 17:07:00,
2013-04-16 13:08:00,65.8,57.7,30.31,SW,225,2.0,6.0,75,0.00,,,0.00,Wunderground v.1.15,2013-04-16 17:08:00,
2013-04-16 13:09:00,65.9,57.4,30.31,SSW,202,2.0,6.0,74,0.00,,,0.00,Wunderground v.1.15,2013-04-16 17:09:00,
2013-04-16 13:10:00,66.1,57.2,30.31,West,274,2.0,3.0,73,0.00,,,0.00,Wunderground v.1.15,2013-04-16 17:10:00,
2013-04-16 13:12:00,66.3,56.6,30.31,South,184,4.0,5.0,71,0.00,,,0.00,Wunderground v.1.15,2013-04-16 17:12:00,
2013-04-16 13:13:00,66.5,56.8,30.31,SSW,194,5.0,6.0,71,0.00,,,0.00,Wunderground v.1.15,2013-04-16 17:13:00,
2013-04-16 13:14:00,66.6,56.5,30.31,SSE,162,5.0,9.0,70,0.00,,,0.00,Wunderground v.1.15,2013-04-16 17:14:00,
2013-04-16 13:15:00,66.7,56.6,30.31,South,169,2.0,9.0,70,0.00,,,0.00,Wunderground v.1.15,2013-04-16 17:15:00,
2013-04-16 13:17:00,66.8,57.1,30.31,SSW,213,9.0,10.0,71,0.00,,,0.00,Wunderground v.1.15,2013-04-16 17:17:00,
2013-04-16 13:18:00,66.8,57.1,30.31,South,184,5.0,10.0,71,0.00,,,0.00,Wunderground v.1.15,2013-04-16 17:18:00,
2013-04-16 13:19:00,66.8,56.3,30.31,SW,227,4.0,10.0,69,0.00,,,0.00,Wunderground v.1.15,2013-04-16 17:19:00,
2013-04-16 13:20:00,66.8,56.7,30.31,SW,225,2.0,5.0,70,0.00,,,0.00,Wunderground v.1.15,2013-04-16 17:20:00,
2013-04-16 13:23:00,66.6,55.7,30.31,SW,215,2.0,6.0,68,0.00,,,0.00,Wunderground v.1.15,2013-04-16 17:23:00,
2013-04-16 13:24:00,66.6,56.1,30.31,SSE,167,5.0,6.0,69,0.00,,,0.00,Wunderground v.1.15,2013-04-16 17:24:00,
2013-04-16 13:25:00,66.6,56.5,30.31,SSE,159,5.0,6.0,70,0.00,,,0.00,Wunderground v.1.15,2013-04-16 17:25:00,
2013-04-16 13:28:00,66.7,56.6,30.30,South,173,5.0,7.0,70,0.00,,,0.00,Wunderground v.1.15,2013-04-16 17:28:00,
2013-04-16 13:29:00,66.7,57.4,30.30,East,90,5.0,7.0,72,0.00,,,0.00,Wunderground v.1.15,2013-04-16 17:29:00,
2013-04-16 13:30:00,66.6,57.3,30.30,SSE,162,4.0,5.0,72,0.00,,,0.00,Wunderground v.1.15,2013-04-16 17:30:00,
2013-04-16 13:33:00,66.7,57.4,30.30,SE,136,7.0,8.0,72,0.00,,,0.00,Wunderground v.1.15,2013-04-16 17:33:00,
2013-04-16 13:35:00,66.9,58.0,30.30,SSE,167,2.0,8.0,73,0.00,,,0.00,Wunderground v.1.15,2013-04-16 17:35:00,
2013-04-16 13:36:00,66.9,57.6,30.30,SSE,157,4.0,8.0,72,0.00,,,0.00,Wunderground v.1.15,2013-04-16 17:36:00,
2013-04-16 13:37:00,66.8,57.9,30.30,SSE,165,5.0,11.0,73,0.00,,,0.00,Wunderground v.1.15,2013-04-16 17:37:00,
2013-04-16 13:38:00,66.7,57.8,30.30,South,186,4.0,11.0,73,0.00,,,0.00,Wunderground v.1.15,2013-04-16 17:38:00,
2013-04-16 13:40:00,66.4,57.5,30.30,SSW,208,7.0,7.0,73,0.00,,,0.00,Wunderground v.1.15,2013-04-16 17:40:00,
2013-04-16 13:42:00,66.1,57.6,30.30,South,190,3.0,9.0,74,0.00,,,0.00,Wunderground v.1.15,2013-04-16 17:42:00,
2013-04-16 13:43:00,66.0,57.1,30.30,WSW,253,2.0,9.0,73,0.00,,,0.00,Wunderground v.1.15,2013-04-16 17:43:00,
2013-04-16 13:44:00,66.0,57.1,30.30,South,182,1.0,9.0,73,0.00,,,0.00,Wunderground v.1.15,2013-04-16 17:44:00,
2013-04-16 13:45:00,65.9,57.0,30.30,SSW,193,5.0,9.0,73,0.00,,,0.00,Wunderground v.1.15,2013-04-16 17:45:00,
2013-04-16 13:47:00,66.0,57.5,30.30,SSE,153,4.0,9.0,74,0.00,,,0.00,Wunderground v.1.15,2013-04-16 17:47:00,
2013-04-16 13:48:00,66.0,56.7,30.30,SSE,167,9.0,9.0,72,0.00,,,0.00,Wunderground v.1.15,2013-04-16 17:48:00,
2013-04-16 13:49:00,66.1,56.8,30.30,WSW,254,1.0,9.0,72,0.00,,,0.00,Wunderground v.1.15,2013-04-16 17:49:00,
2013-04-16 13:50:00,66.2,56.5,30.30,South,184,6.0,6.0,71,0.00,,,0.00,Wunderground v.1.15,2013-04-16 17:50:00,
2013-04-16 13:53:00,66.4,57.1,30.30,South,169,5.0,10.0,72,0.00,,,0.00,Wunderground v.1.15,2013-04-16 17:53:00,
2013-04-16 13:54:00,66.5,57.2,30.30,SSE,166,3.0,10.0,72,0.00,,,0.00,Wunderground v.1.15,2013-04-16 17:54:00,
2013-04-16 13:55:00,66.6,56.9,30.30,SSE,161,1.0,10.0,71,0.00,,,0.00,Wunderground v.1.15,2013-04-16 17:55:00,
2013-04-16 13:58:00,66.7,57.0,30.30,SSE,153,2.0,10.0,71,0.00,,,0.00,Wunderground v.1.15,2013-04-16 17:58:00,
2013-04-16 14:00:00,66.8,57.1,30.30,WSW,241,7.0,8.0,71,0.00,,,0.00,Wunderground v.1.15,2013-04-16 18:00:00,
2013-04-16 14:01:00,66.8,57.1,30.30,South,178,8.0,8.0,71,0.00,,,0.00,Wunderground v.1.15,2013-04-16 18:01:00,
2013-04-16 14:03:00,67.0,56.9,30.30,SSW,200,6.0,12.0,70,0.00,,,0.00,Wunderground v.1.15,2013-04-16 18:03:00,
2013-04-16 14:04:00,67.0,56.9,30.30,South,171,4.0,12.0,70,0.00,,,0.00,Wunderground v.1.15,2013-04-16 18:04:00,
2013-04-16 14:05:00,67.1,57.0,30.30,South,186,2.0,12.0,70,0.00,,,0.00,Wunderground v.1.15,2013-04-16 18:05:00,
2013-04-16 14:07:00,67.1,56.6,30.30,SE,140,1.0,12.0,69,0.00,,,0.00,Wunderground v.1.15,2013-04-16 18:07:00,
2013-04-16 14:08:00,67.1,56.6,30.30,SSE,163,3.0,12.0,69,0.00,,,0.00,Wunderground v.1.15,2013-04-16 18:08:00,
2013-04-16 14:09:00,67.1,57.0,30.30,SE,126,4.0,12.0,70,0.00,,,0.00,Wunderground v.1.15,2013-04-16 18:09:00,
2013-04-16 14:10:00,67.2,57.1,30.29,ESE,111,5.0,7.0,70,0.00,,,0.00,Wunderground v.1.15,2013-04-16 18:10:00,
2013-04-16 14:12:00,67.2,57.5,30.29,SE,135,4.0,7.0,71,0.00,,,0.00,Wunderground v.1.15,2013-04-16 18:12:00,
2013-04-16 14:13:00,67.2,57.5,30.30,ESE,113,2.0,8.0,71,0.00,,,0.00,Wunderground v.1.15,2013-04-16 18:13:00,
2013-04-16 14:14:00,67.2,57.5,30.30,SE,124,5.0,8.0,71,0.00,,,0.00,Wunderground v.1.15,2013-04-16 18:14:00,
2013-04-16 14:15:00,67.2,57.5,30.30,South,172,7.0,8.0,71,0.00,,,0.00,Wunderground v.1.15,2013-04-16 18:15:00,
2013-04-16 14:17:00,67.2,57.5,30.29,SSE,168,6.0,9.0,71,0.00,,,0.00,Wunderground v.1.15,2013-04-16 18:17:00,
2013-04-16 14:18:00,67.2,57.5,30.29,SSE,162,5.0,10.0,71,0.00,,,0.00,Wunderground v.1.15,2013-04-16 18:18:00,
2013-04-16 14:19:00,67.2,57.1,30.29,ESE,119,5.0,10.0,70,0.00,,,0.00,Wunderground v.1.15,2013-04-16 18:19:00,
2013-04-16 14:21:00,67.1,57.0,30.29,SE,128,4.0,6.0,70,0.00,,,0.00,Wunderground v.1.15,2013-04-16 18:21:00,
2013-04-16 14:22:00,67.1,57.4,30.29,South,181,7.0,9.0,71,0.00,,,0.00,Wunderground v.1.15,2013-04-16 18:22:00,
2013-04-16 14:24:00,67.1,57.4,30.29,SSE,167,2.0,9.0,71,0.00,,,0.00,Wunderground v.1.15,2013-04-16 18:24:00,
2013-04-16 14:25:00,67.2,57.5,30.29,South,170,6.0,9.0,71,0.00,,,0.00,Wunderground v.1.15,2013-04-16 18:25:00,
2013-04-16 14:26:00,67.2,57.5,30.29,SSE,165,7.0,9.0,71,0.00,,,0.00,Wunderground v.1.15,2013-04-16 18:26:00,
2013-04-16 14:28:00,67.3,57.2,30.29,SSE,154,8.0,9.0,70,0.00,,,0.00,Wunderground v.1.15,2013-04-16 18:28:00,
2013-04-16 14:30:00,67.4,57.3,30.29,SE,139,2.0,4.0,70,0.00,,,0.00,Wunderground v.1.15,2013-04-16 18:30:00,
2013-04-16 14:31:00,67.5,57.4,30.29,SSE,147,8.0,8.0,70,0.00,,,0.00,Wunderground v.1.15,2013-04-16 18:31:00,
2013-04-16 14:32:00,67.5,57.4,30.29,SSE,161,4.0,8.0,70,0.00,,,0.00,Wunderground v.1.15,2013-04-16 18:32:00,
2013-04-16 14:33:00,67.7,57.6,30.29,ESE,120,3.0,8.0,70,0.00,,,0.00,Wunderground v.1.15,2013-04-16 18:33:00,
2013-04-16 14:35:00,67.9,57.4,30.28,South,169,7.0,14.0,69,0.00,,,0.00,Wunderground v.1.15,2013-04-16 18:35:00,
2013-04-16 14:36:00,68.1,57.9,30.28,SSW,202,5.0,14.0,70,0.00,,,0.00,Wunderground v.1.15,2013-04-16 18:36:00,
2013-04-16 14:37:00,68.1,57.5,30.28,SSW,205,6.0,14.0,69,0.00,,,0.00,Wunderground v.1.15,2013-04-16 18:37:00,
2013-04-16 14:38:00,68.4,57.0,30.28,South,185,5.0,14.0,67,0.00,,,0.00,Wunderground v.1.15,2013-04-16 18:38:00,
2013-04-16 14:40:00,68.6,57.2,30.28,SW,228,1.0,5.0,67,0.00,,,0.00,Wunderground v.1.15,2013-04-16 18:40:00,
2013-04-16 14:42:00,68.7,56.9,30.28,SE,134,7.0,7.0,66,0.00,,,0.00,Wunderground v.1.15,2013-04-16 18:42:00,
2013-04-16 14:44:00,68.8,57.4,30.28,West,261,2.0,7.0,67,0.00,,,0.00,Wunderground v.1.15,2013-04-16 18:44:00,
2013-04-16 14:45:00,69.0,56.7,30.28,West,259,3.0,7.0,65,0.00,,,0.00,Wunderground v.1.15,2013-04-16 18:45:00,
2013-04-16 14:46:00,69.0,56.7,30.28,SSW,200,3.0,7.0,65,0.00,,,0.00,Wunderground v.1.15,2013-04-16 18:46:00,
2013-04-16 14:47:00,69.1,56.8,30.28,SSW,198,1.0,7.0,65,0.00,,,0.00,Wunderground v.1.15,2013-04-16 18:47:00,
2013-04-16 14:48:00,69.2,57.4,30.28,SSW,196,8.0,8.0,66,0.00,,,0.00,Wunderground v.1.15,2013-04-16 18:48:00,
2013-04-16 14:49:00,69.3,57.5,30.28,WSW,252,1.0,8.0,66,0.00,,,0.00,Wunderground v.1.15,2013-04-16 18:49:00,
2013-04-16 14:51:00,69.5,57.2,30.28,SSE,150,4.0,4.0,65,0.00,,,0.00,Wunderground v.1.15,2013-04-16 18:51:00,
2013-04-16 14:52:00,69.5,58.1,30.28,SE,135,5.0,6.0,67,0.00,,,0.00,Wunderground v.1.15,2013-04-16 18:52:00,
2013-04-16 14:53:00,69.6,57.3,30.28,SSE,162,5.0,7.0,65,0.00,,,0.00,Wunderground v.1.15,2013-04-16 18:53:00,
2013-04-16 14:54:00,69.5,56.8,30.28,South,172,5.0,7.0,64,0.00,,,0.00,Wunderground v.1.15,2013-04-16 18:54:00,
2013-04-16 14:56:00,69.3,56.6,30.28,South,175,4.0,9.0,64,0.00,,,0.00,Wunderground v.1.15,2013-04-16 18:56:00,
2013-04-16 14:57:00,69.2,56.5,30.28,SSW,194,3.0,9.0,64,0.00,,,0.00,Wunderground v.1.15,2013-04-16 18:57:00,
2013-04-16 14:59:00,69.2,56.9,30.28,West,269,0.0,9.0,65,0.00,,,0.00,Wunderground v.1.15,2013-04-16 18:59:00,
2013-04-16 15:00:00,69.2,56.9,30.28,West,259,0.0,4.0,65,0.00,,,0.00,Wunderground v.1.15,2013-04-16 19:00:00,
2013-04-16 15:02:00,69.3,56.6,30.28,WSW,242,1.0,4.0,64,0.00,,,0.00,Wunderground v.1.15,2013-04-16 19:02:00,
2013-04-16 15:03:00,69.4,57.1,30.27,South,169,0.0,4.0,65,0.00,,,0.00,Wunderground v.1.15,2013-04-16 19:03:00,
2013-04-16 15:04:00,69.4,57.1,30.27,South,178,4.0,5.0,65,0.00,,,0.00,Wunderground v.1.15,2013-04-16 19:04:00,
2013-04-16 15:05:00,69.5,58.1,30.27,SSW,200,2.0,5.0,67,0.00,,,0.00,Wunderground v.1.15,2013-04-16 19:05:00,
2013-04-16 15:07:00,69.8,57.1,30.28,NW,304,4.0,6.0,64,0.00,,,0.00,Wunderground v.1.15,2013-04-16 19:07:00,
2013-04-16 15:08:00,69.8,57.1,30.27,WSW,246,3.0,6.0,64,0.00,,,0.00,Wunderground v.1.15,2013-04-16 19:08:00,
2013-04-16 15:09:00,69.9,57.6,30.27,SSW,196,1.0,6.0,65,0.00,,,0.00,Wunderground v.1.15,2013-04-16 19:09:00,
2013-04-16 15:11:00,70.0,56.8,30.27,SW,216,3.0,4.0,63,0.00,,,0.00,Wunderground v.1.15,2013-04-16 19:11:00,
2013-04-16 15:13:00,69.9,56.3,30.27,WNW,292,3.0,4.0,62,0.00,,,0.00,Wunderground v.1.15,2013-04-16 19:13:00,
2013-04-16 15:14:00,69.9,56.3,30.27,WNW,283,1.0,5.0,62,0.00,,,0.00,Wunderground v.1.15,2013-04-16 19:14:00,
2013-04-16 15:16:00,70.0,56.8,30.27,SSE,161,2.0,5.0,63,0.00,,,0.00,Wunderground v.1.15,2013-04-16 19:16:00,
2013-04-16 15:18:00,70.2,57.4,30.27,ENE,57,0.0,5.0,64,0.00,,,0.00,Wunderground v.1.15,2013-04-16 19:18:00,
2013-04-16 15:19:00,70.2,57.9,30.27,SSE,153,1.0,5.0,65,0.00,,,0.00,Wunderground v.1.15,2013-04-16 19:19:00,
2013-04-16 15:21:00,70.3,57.1,30.27,SSE,167,10.0,10.0,63,0.00,,,0.00,Wunderground v.1.15,2013-04-16 19:21:00,
2013-04-16 15:23:00,70.4,57.2,30.27,West,280,1.0,10.0,63,0.00,,,0.00,Wunderground v.1.15,2013-04-16 19:23:00,
2013-04-16 15:24:00,70.4,57.2,30.27,South,175,8.0,10.0,63,0.00,,,0.00,Wunderground v.1.15,2013-04-16 19:24:00,
2013-04-16 15:25:00,70.4,58.1,30.27,South,172,3.0,10.0,65,0.00,,,0.00,Wunderground v.1.15,2013-04-16 19:25:00,
2013-04-16 15:26:00,70.3,58.0,30.27,SSE,148,7.0,10.0,65,0.00,,,0.00,Wunderground v.1.15,2013-04-16 19:26:00,
2013-04-16 15:28:00,70.3,57.5,30.27,East,88,5.0,10.0,64,0.00,,,0.00,Wunderground v.1.15,2013-04-16 19:28:00,
2013-04-16 15:29:00,70.1,57.4,30.27,East,92,5.0,10.0,64,0.00,,,0.00,Wunderground v.1.15,2013-04-16 19:29:00,
2013-04-16 15:31:00,70.0,57.7,30.27,ENE,67,4.0,5.0,65,0.00,,,0.00,Wunderground v.1.15,2013-04-16 19:31:00,
2013-04-16 15:33:00,69.8,57.5,30.26,SSE,167,2.0,10.0,65,0.00,,,0.00,Wunderground v.1.15,2013-04-16 19:33:00,
2013-04-16 15:34:00,69.8,57.5,30.26,SSE,168,3.0,10.0,65,0.00,,,0.00,Wunderground v.1.15,2013-04-16 19:34:00,
2013-04-16 15:35:00,69.8,57.9,30.26,NE,48,2.0,10.0,66,0.00,,,0.00,Wunderground v.1.15,2013-04-16 19:35:00,
2013-04-16 15:36:00,69.9,58.0,30.26,NE,48,4.0,10.0,66,0.00,,,0.00,Wunderground v.1.15,2013-04-16 19:36:00,
2013-04-16 15:37:00,70.0,57.7,30.26,South,183,2.0,10.0,65,0.00,,,0.00,Wunderground v.1.15,2013-04-16 19:37:00,
2013-04-16 15:39:00,70.1,57.4,30.26,ESE,119,1.0,10.0,64,0.00,,,0.00,Wunderground v.1.15,2013-04-16 19:39:00,
2013-04-16 15:40:00,70.1,57.4,30.26,East,89,5.0,5.0,64,0.00,,,0.00,Wunderground v.1.15,2013-04-16 19:40:00,
2013-04-16 15:42:00,70.1,57.8,30.26,East,98,7.0,9.0,65,0.00,,,0.00,Wunderground v.1.15,2013-04-16 19:42:00,
2013-04-16 15:44:00,70.2,57.9,30.26,East,98,2.0,9.0,65,0.00,,,0.00,Wunderground v.1.15,2013-04-16 19:44:00,
2013-04-16 15:45:00,70.2,57.4,30.26,ESE,119,2.0,9.0,64,0.00,,,0.00,Wunderground v.1.15,2013-04-16 19:45:00,
2013-04-16 15:47:00,70.1,57.4,30.26,SSE,157,4.0,9.0,64,0.00,,,0.00,Wunderground v.1.15,2013-04-16 19:47:00,
2013-04-16 15:49:00,70.1,57.8,30.26,South,173,3.0,9.0,65,0.00,,,0.00,Wunderground v.1.15,2013-04-16 19:49:00,
2013-04-16 15:50:00,70.1,57.8,30.26,South,174,5.0,5.0,65,0.00,,,0.00,Wunderground v.1.15,2013-04-16 19:50:00,
2013-04-16 15:52:00,70.0,57.3,30.26,SSE,150,5.0,9.0,64,0.00,,,0.00,Wunderground v.1.15,2013-04-16 19:52:00,
2013-04-16 15:53:00,70.0,57.7,30.26,SSE,159,7.0,9.0,65,0.00,,,0.00,Wunderground v.1.15,2013-04-16 19:53:00,
2013-04-16 15:54:00,70.1,57.4,30.26,South,172,3.0,9.0,64,0.00,,,0.00,Wunderground v.1.15,2013-04-16 19:54:00,
2013-04-16 15:55:00,70.1,57.4,30.26,SE,142,5.0,9.0,64,0.00,,,0.00,Wunderground v.1.15,2013-04-16 19:55:00,
2013-04-16 15:57:00,70.3,58.0,30.26,SE,131,3.0,9.0,65,0.00,,,0.00,Wunderground v.1.15,2013-04-16 19:57:00,
2013-04-16 15:58:00,70.3,57.5,30.26,SSE,159,4.0,9.0,64,0.00,,,0.00,Wunderground v.1.15,2013-04-16 19:58:00,
2013-04-16 15:59:00,70.4,57.2,30.26,SE,137,5.0,9.0,63,0.00,,,0.00,Wunderground v.1.15,2013-04-16 19:59:00,
2013-04-16 16:00:00,70.4,57.2,30.26,SSE,152,5.0,7.0,63,0.00,,,0.00,Wunderground v.1.15,2013-04-16 20:00:00,
2013-04-16 16:03:00,70.5,58.6,30.25,SSE,162,5.0,9.0,66,0.00,,,0.00,Wunderground v.1.15,2013-04-16 20:03:00,
2013-04-16 16:04:00,70.5,57.7,30.25,South,191,7.0,9.0,64,0.00,,,0.00,Wunderground v.1.15,2013-04-16 20:04:00,
2013-04-16 16:05:00,70.6,57.8,30.25,SSW,198,5.0,9.0,64,0.00,,,0.00,Wunderground v.1.15,2013-04-16 20:05:00,
2013-04-16 16:07:00,70.5,57.3,30.25,South,177,3.0,9.0,63,0.00,,,0.00,Wunderground v.1.15,2013-04-16 20:07:00,
2013-04-16 16:08:00,70.5,57.7,30.25,SE,137,7.0,9.0,64,0.00,,,0.00,Wunderground v.1.15,2013-04-16 20:08:00,
2013-04-16 16:09:00,70.5,58.2,30.25,South,181,5.0,9.0,65,0.00,,,0.00,Wunderground v.1.15,2013-04-16 20:09:00,
2013-04-16 16:10:00,70.5,57.7,30.25,SSE,165,7.0,7.0,64,0.00,,,0.00,Wunderground v.1.15,2013-04-16 20:10:00,
2013-04-16 16:12:00,70.3,57.1,30.25,SE,130,4.0,8.0,63,0.00,,,0.00,Wunderground v.1.15,2013-04-16 20:12:00,
2013-04-16 16:13:00,70.2,57.4,30.25,SW,227,3.0,8.0,64,0.00,,,0.00,Wunderground v.1.15,2013-04-16 20:13:00,
2013-04-16 16:14:00,70.2,57.4,30.25,SSW,205,2.0,8.0,64,0.00,,,0.00,Wunderground v.1.15,2013-04-16 20:14:00,
2013-04-16 16:16:00,70.2,57.4,30.25,South,171,2.0,8.0,64,0.00,,,0.00,Wunderground v.1.15,2013-04-16 20:16:00,
2013-04-16 16:17:00,70.3,57.5,30.25,ESE,108,4.0,8.0,64,0.00,,,0.00,Wunderground v.1.15,2013-04-16 20:17:00,
2013-04-16 16:18:00,70.4,57.2,30.25,SE,131,4.0,8.0,63,0.00,,,0.00,Wunderground v.1.15,2013-04-16 20:18:00,
2013-04-16 16:19:00,70.4,57.6,30.25,SSE,159,4.0,8.0,64,0.00,,,0.00,Wunderground v.1.15,2013-04-16 20:19:00,
2013-04-16 16:20:00,70.4,57.6,30.25,SE,140,6.0,6.0,64,0.00,,,0.00,Wunderground v.1.15,2013-04-16 20:20:00,
2013-04-16 16:22:00,70.6,57.8,30.25,ESE,120,1.0,8.0,64,0.00,,,0.00,Wunderground v.1.15,2013-04-16 20:22:00,
2013-04-16 16:24:00,70.7,57.5,30.25,South,178,4.0,8.0,63,0.00,,,0.00,Wunderground v.1.15,2013-04-16 20:24:00,
2013-04-16 16:25:00,70.8,57.6,30.25,SE,140,5.0,8.0,63,0.00,,,0.00,Wunderground v.1.15,2013-04-16 20:25:00,
2013-04-16 16:27:00,70.8,57.6,30.25,South,175,7.0,8.0,63,0.00,,,0.00,Wunderground v.1.15,2013-04-16 20:27:00,
2013-04-16 16:29:00,71.0,57.8,30.25,SSE,148,6.0,10.0,63,0.00,,,0.00,Wunderground v.1.15,2013-04-16 20:29:00,
2013-04-16 16:30:00,71.0,57.8,30.25,SSE,150,6.0,6.0,63,0.00,,,0.00,Wunderground v.1.15,2013-04-16 20:30:00,
2013-04-16 16:33:00,71.1,58.7,30.25,SE,135,9.0,11.0,65,0.00,,,0.00,Wunderground v.1.15,2013-04-16 20:33:00,
2013-04-16 16:34:00,71.2,58.0,30.25,SSE,160,5.0,11.0,63,0.00,,,0.00,Wunderground v.1.15,2013-04-16 20:34:00,
2013-04-16 16:35:00,71.3,58.5,30.25,SSE,150,5.0,11.0,64,0.00,,,0.00,Wunderground v.1.15,2013-04-16 20:35:00,
2013-04-16 16:36:00,71.3,57.6,30.25,SW,228,2.0,11.0,62,0.00,,,0.00,Wunderground v.1.15,2013-04-16 20:36:00,
2013-04-16 16:39:00,71.2,57.5,30.25,SE,143,5.0,12.0,62,0.00,,,0.00,Wunderground v.1.15,2013-04-16 20:39:00,
2013-04-16 16:41:00,71.0,57.3,30.25,SSE,164,3.0,7.0,62,0.00,,,0.00,Wunderground v.1.15,2013-04-16 20:41:00,
2013-04-16 16:42:00,71.0,57.8,30.25,SSE,150,10.0,10.0,63,0.00,,,0.00,Wunderground v.1.15,2013-04-16 20:42:00,
2013-04-16 16:44:00,70.9,57.7,30.25,SSE,155,6.0,10.0,63,0.00,,,0.00,Wunderground v.1.15,2013-04-16 20:44:00,
2013-04-16 16:47:00,70.8,57.6,30.25,SSE,159,8.0,10.0,63,0.00,,,0.00,Wunderground v.1.15,2013-04-16 20:47:00,
2013-04-16 16:48:00,70.8,58.4,30.25,South,173,5.0,10.0,65,0.00,,,0.00,Wunderground v.1.15,2013-04-16 20:48:00,
2013-04-16 16:50:00,71.0,57.8,30.25,WSW,240,5.0,6.0,63,0.00,,,0.00,Wunderground v.1.15,2013-04-16 20:50:00,
2013-04-16 16:52:00,71.0,57.8,30.24,SE,142,6.0,6.0,63,0.00,,,0.00,Wunderground v.1.15,2013-04-16 20:52:00,
2013-04-16 16:53:00,71.0,57.8,30.24,ENE,78,5.0,8.0,63,0.00,,,0.00,Wunderground v.1.15,2013-04-16 20:53:00,
2013-04-16 16:54:00,71.0,57.8,30.25,ENE,69,5.0,8.0,63,0.00,,,0.00,Wunderground v.1.15,2013-04-16 20:54:00,
2013-04-16 16:55:00,71.0,57.8,30.25,SE,141,7.0,8.0,63,0.00,,,0.00,Wunderground v.1.15,2013-04-16 20:55:00,
2013-04-16 16:58:00,71.1,57.9,30.25,SSE,154,6.0,10.0,63,0.00,,,0.00,Wunderground v.1.15,2013-04-16 20:58:00,
2013-04-16 16:59:00,71.1,57.9,30.25,SE,138,10.0,10.0,63,0.00,,,0.00,Wunderground v.1.15,2013-04-16 20:59:00,
2013-04-16 17:00:00,71.1,57.9,30.25,SSE,148,8.0,10.0,63,0.00,,,0.00,Wunderground v.1.15,2013-04-16 21:00:00,
2013-04-16 17:03:00,71.0,57.8,30.25,SE,136,4.0,11.0,63,0.00,,,0.00,Wunderground v.1.15,2013-04-16 21:03:00,
2013-04-16 17:04:00,70.9,57.7,30.25,SSE,165,11.0,11.0,63,0.00,,,0.00,Wunderground v.1.15,2013-04-16 21:04:00,
2013-04-16 17:06:00,70.9,57.7,30.25,SE,146,6.0,12.0,63,0.00,,,0.00,Wunderground v.1.15,2013-04-16 21:06:00,
2013-04-16 17:08:00,70.8,58.0,30.25,South,171,6.0,12.0,64,0.00,,,0.00,Wunderground v.1.15,2013-04-16 21:08:00,
2013-04-16 17:09:00,70.8,58.0,30.25,SE,142,7.0,12.0,64,0.00,,,0.00,Wunderground v.1.15,2013-04-16 21:09:00,
2013-04-16 17:11:00,70.7,57.9,30.25,SE,144,8.0,12.0,64,0.00,,,0.00,Wunderground v.1.15,2013-04-16 21:11:00,
2013-04-16 17:12:00,70.7,57.9,30.25,SE,136,5.0,12.0,64,0.00,,,0.00,Wunderground v.1.15,2013-04-16 21:12:00,
2013-04-16 17:14:00,70.6,57.8,30.25,SE,142,11.0,12.0,64,0.00,,,0.00,Wunderground v.1.15,2013-04-16 21:14:00,
2013-04-16 17:16:00,70.7,57.9,30.25,SSE,157,8.0,12.0,64,0.00,,,0.00,Wunderground v.1.15,2013-04-16 21:16:00,
2013-04-16 17:17:00,70.7,57.9,30.25,SE,140,7.0,12.0,64,0.00,,,0.00,Wunderground v.1.15,2013-04-16 21:17:00,
2013-04-16 17:19:00,70.9,58.1,30.25,SSE,151,7.0,12.0,64,0.00,,,0.00,Wunderground v.1.15,2013-04-16 21:19:00,
2013-04-16 17:22:00,71.0,58.2,30.24,ESE,119,7.0,11.0,64,0.00,,,0.00,Wunderground v.1.15,2013-04-16 21:22:00,
2013-04-16 17:24:00,71.0,57.8,30.25,SSE,156,1.0,11.0,63,0.00,,,0.00,Wunderground v.1.15,2013-04-16 21:24:00,
2013-04-16 17:25:00,71.0,58.2,30.24,SSE,152,8.0,11.0,64,0.00,,,0.00,Wunderground v.1.15,2013-04-16 21:25:00,
2013-04-16 17:27:00,71.1,58.3,30.24,ESE,123,2.0,11.0,64,0.00,,,0.00,Wunderground v.1.15,2013-04-16 21:27:00,
2013-04-16 17:29:00,71.2,58.0,30.25,SSE,151,6.0,11.0,63,0.00,,,0.00,Wunderground v.1.15,2013-04-16 21:29:00,
2013-04-16 17:31:00,71.2,58.4,30.25,SSE,155,6.0,8.0,64,0.00,,,0.00,Wunderground v.1.15,2013-04-16 21:31:00,
2013-04-16 17:32:00,71.2,58.4,30.25,South,175,6.0,8.0,64,0.00,,,0.00,Wunderground v.1.15,2013-04-16 21:32:00,
2013-04-16 17:33:00,71.2,58.0,30.25,SSE,149,2.0,9.0,63,0.00,,,0.00,Wunderground v.1.15,2013-04-16 21:33:00,
2013-04-16 17:34:00,71.1,57.9,30.25,South,172,7.0,9.0,63,0.00,,,0.00,Wunderground v.1.15,2013-04-16 21:34:00,
2013-04-16 17:35:00,71.1,57.9,30.25,SSE,149,4.0,9.0,63,0.00,,,0.00,Wunderground v.1.15,2013-04-16 21:35:00,
2013-04-16 17:37:00,71.0,57.8,30.25,SSW,198,4.0,9.0,63,0.00,,,0.00,Wunderground v.1.15,2013-04-16 21:37:00,
2013-04-16 17:38:00,70.9,57.7,30.24,South,174,5.0,9.0,63,0.00,,,0.00,Wunderground v.1.15,2013-04-16 21:38:00,
2013-04-16 17:39:00,70.7,57.5,30.25,SSE,158,4.0,9.0,63,0.00,,,0.00,Wunderground v.1.15,2013-04-16 21:39:00,
2013-04-16 17:40:00,70.6,57.4,30.25,ESE,123,5.0,7.0,63,0.00,,,0.00,Wunderground v.1.15,2013-04-16 21:40:00,
2013-04-16 17:42:00,70.4,57.6,30.25,SSW,193,4.0,13.0,64,0.00,,,0.00,Wunderground v.1.15,2013-04-16 21:42:00,
2013-04-16 17:43:00,70.4,58.1,30.25,WSW,240,4.0,13.0,65,0.00,,,0.00,Wunderground v.1.15,2013-04-16 21:43:00,
2013-04-16 17:44:00,70.4,57.6,30.25,NE,54,7.0,13.0,64,0.00,,,0.00,Wunderground v.1.15,2013-04-16 21:44:00,
2013-04-16 17:45:00,70.3,57.5,30.25,ESE,108,2.0,13.0,64,0.00,,,0.00,Wunderground v.1.15,2013-04-16 21:45:00,
2013-04-16 17:47:00,70.3,57.5,30.24,ESE,123,9.0,13.0,64,0.00,,,0.00,Wunderground v.1.15,2013-04-16 21:47:00,
2013-04-16 17:50:00,70.3,57.5,30.24,NE,53,2.0,5.0,64,0.00,,,0.00,Wunderground v.1.15,2013-04-16 21:50:00,
2013-04-16 17:51:00,70.3,57.5,30.24,SE,146,6.0,9.0,64,0.00,,,0.00,Wunderground v.1.15,2013-04-16 21:51:00,
2013-04-16 17:53:00,70.3,57.5,30.24,East,89,1.0,9.0,64,0.00,,,0.00,Wunderground v.1.15,2013-04-16 21:53:00,
2013-04-16 17:55:00,70.4,57.6,30.24,SE,138,8.0,10.0,64,0.00,,,0.00,Wunderground v.1.15,2013-04-16 21:55:00,
2013-04-16 17:56:00,70.4,57.6,30.24,ENE,67,3.0,10.0,64,0.00,,,0.00,Wunderground v.1.15,2013-04-16 21:56:00,
2013-04-16 17:58:00,70.4,57.6,30.24,SSE,164,3.0,10.0,64,0.00,,,0.00,Wunderground v.1.15,2013-04-16 21:58:00,
2013-04-16 18:00:00,70.5,57.7,30.24,South,186,7.0,7.0,64,0.00,,,0.00,Wunderground v.1.15,2013-04-16 22:00:00,
2013-04-16 18:02:00,70.7,58.4,30.25,SW,230,6.0,10.0,65,0.00,,,0.00,Wunderground v.1.15,2013-04-16 22:02:00,
2013-04-16 18:03:00,70.7,57.9,30.24,South,182,7.0,10.0,64,0.00,,,0.00,Wunderground v.1.15,2013-04-16 22:03:00,
2013-04-16 18:04:00,70.6,57.8,30.24,SSW,192,5.0,12.0,64,0.00,,,0.00,Wunderground v.1.15,2013-04-16 22:04:00,
2013-04-16 18:05:00,70.6,57.8,30.24,WSW,240,3.0,12.0,64,0.00,,,0.00,Wunderground v.1.15,2013-04-16 22:05:00,
2013-04-16 18:08:00,70.4,57.6,30.25,SSW,196,1.0,12.0,64,0.00,,,0.00,Wunderground v.1.15,2013-04-16 22:08:00,
2013-04-16 18:09:00,70.3,57.5,30.25,South,178,3.0,12.0,64,0.00,,,0.00,Wunderground v.1.15,2013-04-16 22:09:00,
2013-04-16 18:11:00,70.1,57.4,30.25,South,187,7.0,10.0,64,0.00,,,0.00,Wunderground v.1.15,2013-04-16 22:11:00,
2013-04-16 18:13:00,70.1,57.4,30.25,SE,142,6.0,10.0,64,0.00,,,0.00,Wunderground v.1.15,2013-04-16 22:13:00,
2013-04-16 18:14:00,70.1,57.4,30.25,SE,130,8.0,10.0,64,0.00,,,0.00,Wunderground v.1.15,2013-04-16 22:14:00,
2013-04-16 18:15:00,70.1,57.8,30.24,South,182,2.0,10.0,65,0.00,,,0.00,Wunderground v.1.15,2013-04-16 22:15:00,
2013-04-16 18:16:00,70.1,57.8,30.24,SSW,203,7.0,10.0,65,0.00,,,0.00,Wunderground v.1.15,2013-04-16 22:16:00,
2013-04-16 18:18:00,70.1,57.4,30.24,SE,143,6.0,10.0,64,0.00,,,0.00,Wunderground v.1.15,2013-04-16 22:18:00,
2013-04-16 18:19:00,70.1,57.8,30.24,South,180,5.0,10.0,65,0.00,,,0.00,Wunderground v.1.15,2013-04-16 22:19:00,
2013-04-16 18:21:00,70.1,57.8,30.24,SSE,159,6.0,8.0,65,0.00,,,0.00,Wunderground v.1.15,2013-04-16 22:21:00,
2013-04-16 18:23:00,70.2,57.9,30.24,South,174,3.0,11.0,65,0.00,,,0.00,Wunderground v.1.15,2013-04-16 22:23:00,
2013-04-16 18:24:00,70.2,57.9,30.24,SE,139,5.0,11.0,65,0.00,,,0.00,Wunderground v.1.15,2013-04-16 22:24:00,
2013-04-16 18:26:00,70.2,57.4,30.24,SE,133,7.0,11.0,64,0.00,,,0.00,Wunderground v.1.15,2013-04-16 22:26:00,
2013-04-16 18:28:00,70.0,57.3,30.24,South,188,7.0,11.0,64,0.00,,,0.00,Wunderground v.1.15,2013-04-16 22:28:00,
2013-04-16 18:29:00,70.0,57.3,30.24,SSE,154,6.0,11.0,64,0.00,,,0.00,Wunderground v.1.15,2013-04-16 22:29:00,
2013-04-16 18:30:00,69.9,57.6,30.24,SE,146,5.0,6.0,65,0.00,,,0.00,Wunderground v.1.15,2013-04-16 22:30:00,
2013-04-16 18:32:00,69.8,57.1,30.24,SE,146,8.0,10.0,64,0.00,,,0.00,Wunderground v.1.15,2013-04-16 22:32:00,
2013-04-16 18:34:00,69.7,57.4,30.24,South,171,6.0,10.0,65,0.00,,,0.00,Wunderground v.1.15,2013-04-16 22:34:00,
2013-04-16 18:35:00,69.7,57.0,30.24,SSE,161,5.0,10.0,64,0.00,,,0.00,Wunderground v.1.15,2013-04-16 22:35:00,
2013-04-16 18:37:00,69.7,57.4,30.24,SSE,166,7.0,10.0,65,0.00,,,0.00,Wunderground v.1.15,2013-04-16 22:37:00,
2013-04-16 18:39:00,69.7,57.4,30.24,South,176,4.0,10.0,65,0.00,,,0.00,Wunderground v.1.15,2013-04-16 22:39:00,
2013-04-16 18:40:00,69.7,57.4,30.24,SSE,154,4.0,6.0,65,0.00,,,0.00,Wunderground v.1.15,2013-04-16 22:40:00,
2013-04-16 18:41:00,69.6,57.3,30.24,SSW,200,7.0,9.0,65,0.00,,,0.00,Wunderground v.1.15,2013-04-16 22:41:00,
2013-04-16 18:43:00,69.6,57.3,30.24,SSE,163,7.0,9.0,65,0.00,,,0.00,Wunderground v.1.15,2013-04-16 22:43:00,
2013-04-16 18:44:00,69.5,57.2,30.24,SSE,164,4.0,9.0,65,0.00,,,0.00,Wunderground v.1.15,2013-04-16 22:44:00,
2013-04-16 18:45:00,69.5,57.2,30.24,SE,142,7.0,9.0,65,0.00,,,0.00,Wunderground v.1.15,2013-04-16 22:45:00,
2013-04-16 18:46:00,69.4,56.7,30.24,SE,145,5.0,10.0,64,0.00,,,0.00,Wunderground v.1.15,2013-04-16 22:46:00,
2013-04-16 18:48:00,69.4,57.1,30.24,SSE,167,4.0,10.0,65,0.00,,,0.00,Wunderground v.1.15,2013-04-16 22:48:00,
2013-04-16 18:49:00,69.3,57.0,30.24,SSE,161,5.0,10.0,65,0.00,,,0.00,Wunderground v.1.15,2013-04-16 22:49:00,
2013-04-16 18:50:00,69.3,57.0,30.24,SE,146,6.0,6.0,65,0.00,,,0.00,Wunderground v.1.15,2013-04-16 22:50:00,
2013-04-16 18:51:00,69.2,56.9,30.24,SSE,161,8.0,8.0,65,0.00,,,0.00,Wunderground v.1.15,2013-04-16 22:51:00,
2013-04-16 18:53:00,69.3,57.0,30.24,East,97,8.0,11.0,65,0.00,,,0.00,Wunderground v.1.15,2013-04-16 22:53:00,
2013-04-16 18:55:00,69.2,56.9,30.24,SSE,156,6.0,11.0,65,0.00,,,0.00,Wunderground v.1.15,2013-04-16 22:55:00,
2013-04-16 18:57:00,69.2,56.9,30.24,South,173,5.0,11.0,65,0.00,,,0.00,Wunderground v.1.15,2013-04-16 22:57:00,
2013-04-16 18:58:00,69.2,56.9,30.24,SSE,152,4.0,11.0,65,0.00,,,0.00,Wunderground v.1.15,2013-04-16 22:58:00,
2013-04-16 19:00:00,69.1,57.3,30.24,SE,135,8.0,8.0,66,0.00,,,0.00,Wunderground v.1.15,2013-04-16 23:00:00,
2013-04-16 19:02:00,69.0,57.2,30.24,SE,146,5.0,8.0,66,0.00,,,0.00,Wunderground v.1.15,2013-04-16 23:02:00,
2013-04-16 19:03:00,69.0,57.2,30.24,South,174,5.0,8.0,66,0.00,,,0.00,Wunderground v.1.15,2013-04-16 23:03:00,
2013-04-16 19:04:00,69.0,57.2,30.24,South,179,5.0,9.0,66,0.00,,,0.00,Wunderground v.1.15,2013-04-16 23:04:00,
2013-04-16 19:05:00,69.0,57.2,30.24,South,186,3.0,9.0,66,0.00,,,0.00,Wunderground v.1.15,2013-04-16 23:05:00,
2013-04-16 19:07:00,68.9,57.5,30.24,SSE,150,3.0,9.0,67,0.00,,,0.00,Wunderground v.1.15,2013-04-16 23:07:00,
2013-04-16 19:08:00,68.9,57.5,30.24,South,180,5.0,9.0,67,0.00,,,0.00,Wunderground v.1.15,2013-04-16 23:08:00,
2013-04-16 19:09:00,68.8,57.4,30.24,South,182,8.0,9.0,67,0.00,,,0.00,Wunderground v.1.15,2013-04-16 23:09:00,
2013-04-16 19:10:00,68.8,57.4,30.24,SSE,163,7.0,8.0,67,0.00,,,0.00,Wunderground v.1.15,2013-04-16 23:10:00,
2013-04-16 19:13:00,68.6,57.2,30.24,SSE,165,4.0,10.0,67,0.00,,,0.00,Wunderground v.1.15,2013-04-16 23:13:00,
2013-04-16 19:15:00,68.5,57.1,30.24,SSW,207,3.0,10.0,67,0.00,,,0.00,Wunderground v.1.15,2013-04-16 23:15:00,
2013-04-16 19:16:00,68.4,57.0,30.24,SSW,201,7.0,10.0,67,0.00,,,0.00,Wunderground v.1.15,2013-04-16 23:16:00,
2013-04-16 19:18:00,68.3,56.9,30.24,South,173,5.0,10.0,67,0.00,,,0.00,Wunderground v.1.15,2013-04-16 23:18:00,
2013-04-16 19:20:00,68.1,56.7,30.24,SE,130,4.0,8.0,67,0.00,,,0.00,Wunderground v.1.15,2013-04-16 23:20:00,
2013-04-16 19:22:00,68.1,57.1,30.25,SSE,165,3.0,13.0,68,0.00,,,0.00,Wunderground v.1.15,2013-04-16 23:22:00,
2013-04-16 19:23:00,68.0,57.0,30.25,South,184,4.0,13.0,68,0.00,,,0.00,Wunderground v.1.15,2013-04-16 23:23:00,
2013-04-16 19:25:00,67.9,56.9,30.25,South,172,4.0,13.0,68,0.00,,,0.00,Wunderground v.1.15,2013-04-16 23:25:00,
2013-04-16 19:27:00,67.8,56.9,30.25,South,170,5.0,13.0,68,0.00,,,0.00,Wunderground v.1.15,2013-04-16 23:27:00,
2013-04-16 19:28:00,67.8,56.9,30.25,SSW,212,5.0,13.0,68,0.00,,,0.00,Wunderground v.1.15,2013-04-16 23:28:00,
2013-04-16 19:29:00,67.7,56.8,30.25,SSW,204,5.0,13.0,68,0.00,,,0.00,Wunderground v.1.15,2013-04-16 23:29:00,
2013-04-16 19:30:00,67.7,56.8,30.25,SE,138,5.0,7.0,68,0.00,,,0.00,Wunderground v.1.15,2013-04-16 23:30:00,
2013-04-16 19:32:00,67.6,56.7,30.25,SSW,199,4.0,10.0,68,0.00,,,0.00,Wunderground v.1.15,2013-04-16 23:32:00,
2013-04-16 19:33:00,67.6,57.1,30.25,SSE,168,1.0,10.0,69,0.00,,,0.00,Wunderground v.1.15,2013-04-16 23:33:00,
2013-04-16 19:34:00,67.5,57.0,30.24,South,181,6.0,10.0,69,0.00,,,0.00,Wunderground v.1.15,2013-04-16 23:34:00,
2013-04-16 19:36:00,67.5,57.0,30.24,South,169,5.0,10.0,69,0.00,,,0.00,Wunderground v.1.15,2013-04-16 23:36:00,
2013-04-16 19:37:00,67.4,56.9,30.24,SSE,164,7.0,10.0,69,0.00,,,0.00,Wunderground v.1.15,2013-04-16 23:37:00,
2013-04-16 19:39:00,67.4,56.9,30.24,South,180,5.0,11.0,69,0.00,,,0.00,Wunderground v.1.15,2013-04-16 23:39:00,
2013-04-16 19:40:00,67.4,56.9,30.24,South,187,6.0,6.0,69,0.00,,,0.00,Wunderground v.1.15,2013-04-16 23:40:00,
2013-04-16 19:41:00,67.3,56.8,30.24,SSE,163,3.0,7.0,69,0.00,,,0.00,Wunderground v.1.15,2013-04-16 23:41:00,
2013-04-16 19:42:00,67.3,56.8,30.25,South,184,2.0,7.0,69,0.00,,,0.00,Wunderground v.1.15,2013-04-16 23:42:00,
2013-04-16 19:44:00,67.2,57.1,30.25,SSE,162,4.0,7.0,70,0.00,,,0.00,Wunderground v.1.15,2013-04-16 23:44:00,
2013-04-16 19:45:00,67.2,57.1,30.25,SSE,152,1.0,7.0,70,0.00,,,0.00,Wunderground v.1.15,2013-04-16 23:45:00,
2013-04-16 19:47:00,67.1,56.6,30.25,South,182,3.0,7.0,69,0.00,,,0.00,Wunderground v.1.15,2013-04-16 23:47:00,
2013-04-16 19:48:00,67.1,56.6,30.25,SSE,158,6.0,7.0,69,0.00,,,0.00,Wunderground v.1.15,2013-04-16 23:48:00,
2013-04-16 19:49:00,67.0,56.9,30.25,SSW,192,5.0,8.0,70,0.00,,,0.00,Wunderground v.1.15,2013-04-16 23:49:00,
2013-04-16 19:50:00,67.1,57.0,30.25,SSE,157,4.0,5.0,70,0.00,,,0.00,Wunderground v.1.15,2013-04-16 23:50:00,
2013-04-16 19:52:00,67.0,56.9,30.25,South,183,3.0,5.0,70,0.00,,,0.00,Wunderground v.1.15,2013-04-16 23:52:00,
2013-04-16 19:53:00,66.9,56.8,30.24,South,186,2.0,5.0,70,0.00,,,0.00,Wunderground v.1.15,2013-04-16 23:53:00,
2013-04-16 19:55:00,66.8,56.7,30.25,South,179,2.0,7.0,70,0.00,,,0.00,Wunderground v.1.15,2013-04-16 23:55:00,
2013-04-16 19:58:00,66.7,57.0,30.25,SSW,195,3.0,7.0,71,0.00,,,0.00,Wunderground v.1.15,2013-04-16 23:58:00,
2013-04-16 20:00:00,66.6,56.9,30.25,SE,139,3.0,4.0,71,0.00,,,0.00,Wunderground v.1.15,2013-04-17 00:00:00,
2013-04-16 20:01:00,66.6,56.9,30.25,South,179,3.0,8.0,71,0.00,,,0.00,Wunderground v.1.15,2013-04-17 00:01:00,
2013-04-16 20:03:00,66.5,56.8,30.25,South,181,1.0,8.0,71,0.00,,,0.00,Wunderground v.1.15,2013-04-17 00:03:00,
2013-04-16 20:05:00,66.4,56.7,30.25,South,179,3.0,8.0,71,0.00,,,0.00,Wunderground v.1.15,2013-04-17 00:05:00,
2013-04-16 20:06:00,66.4,56.7,30.25,South,178,11.0,11.0,71,0.00,,,0.00,Wunderground v.1.15,2013-04-17 00:06:00,
2013-04-16 20:08:00,66.3,56.6,30.25,SSE,162,3.0,11.0,71,0.00,,,0.00,Wunderground v.1.15,2013-04-17 00:08:00,
2013-04-16 20:09:00,66.3,56.6,30.25,South,188,5.0,11.0,71,0.00,,,0.00,Wunderground v.1.15,2013-04-17 00:09:00,
2013-04-16 20:10:00,66.2,56.5,30.25,South,184,4.0,6.0,71,0.00,,,0.00,Wunderground v.1.15,2013-04-17 00:10:00,
2013-04-16 20:11:00,66.2,56.9,30.25,SSE,148,3.0,6.0,72,0.00,,,0.00,Wunderground v.1.15,2013-04-17 00:11:00,
2013-04-16 20:12:00,66.2,56.9,30.25,South,169,3.0,6.0,72,0.00,,,0.00,Wunderground v.1.15,2013-04-17 00:12:00,
2013-04-16 20:14:00,66.1,56.8,30.26,South,182,4.0,6.0,72,0.00,,,0.00,Wunderground v.1.15,2013-04-17 00:14:00,
2013-04-16 20:15:00,66.0,56.7,30.26,South,173,3.0,6.0,72,0.00,,,0.00,Wunderground v.1.15,2013-04-17 00:15:00,
2013-04-16 20:17:00,66.0,56.7,30.26,SSW,209,4.0,6.0,72,0.00,,,0.00,Wunderground v.1.15,2013-04-17 00:17:00,
2013-04-16 20:19:00,66.0,56.7,30.26,South,185,4.0,6.0,72,0.00,,,0.00,Wunderground v.1.15,2013-04-17 00:19:00,
2013-04-16 20:20:00,66.0,56.7,30.26,South,175,2.0,3.0,72,0.00,,,0.00,Wunderground v.1.15,2013-04-17 00:20:00,
2013-04-16 20:22:00,65.9,56.6,30.26,South,171,4.0,5.0,72,0.00,,,0.00,Wunderground v.1.15,2013-04-17 00:22:00,
2013-04-16 20:25:00,65.8,56.5,30.26,South,182,3.0,5.0,72,0.00,,,0.00,Wunderground v.1.15,2013-04-17 00:25:00,
2013-04-16 20:27:00,65.6,56.7,30.26,South,175,3.0,6.0,73,0.00,,,0.00,Wunderground v.1.15,2013-04-17 00:27:00,
2013-04-16 20:30:00,65.5,56.6,30.26,SSE,165,3.0,3.0,73,0.00,,,0.00,Wunderground v.1.15,2013-04-17 00:30:00,
2013-04-16 20:31:00,65.4,56.5,30.26,SSE,167,2.0,3.0,73,0.00,,,0.00,Wunderground v.1.15,2013-04-17 00:31:00,
2013-04-16 20:32:00,65.4,56.5,30.26,South,169,3.0,3.0,73,0.00,,,0.00,Wunderground v.1.15,2013-04-17 00:32:00,
2013-04-16 20:33:00,65.4,56.5,30.26,South,169,2.0,3.0,73,0.00,,,0.00,Wunderground v.1.15,2013-04-17 00:33:00,
2013-04-16 20:35:00,65.3,56.4,30.26,South,179,2.0,5.0,73,0.00,,,0.00,Wunderground v.1.15,2013-04-17 00:35:00,
2013-04-16 20:36:00,65.3,56.4,30.26,SSE,162,2.0,5.0,73,0.00,,,0.00,Wunderground v.1.15,2013-04-17 00:36:00,
2013-04-16 20:38:00,65.2,56.7,30.26,SSW,194,2.0,5.0,74,0.00,,,0.00,Wunderground v.1.15,2013-04-17 00:38:00,
2013-04-16 20:40:00,65.1,56.6,30.26,SSE,167,2.0,5.0,74,0.00,,,0.00,Wunderground v.1.15,2013-04-17 00:40:00,
2013-04-16 20:42:00,65.1,56.6,30.26,SSE,163,2.0,5.0,74,0.00,,,0.00,Wunderground v.1.15,2013-04-17 00:42:00,
2013-04-16 20:43:00,65.1,56.6,30.26,SSE,163,4.0,5.0,74,0.00,,,0.00,Wunderground v.1.15,2013-04-17 00:43:00,
2013-04-16 20:45:00,65.0,56.5,30.26,South,172,2.0,6.0,74,0.00,,,0.00,Wunderground v.1.15,2013-04-17 00:45:00,
2013-04-16 20:47:00,65.0,56.5,30.26,South,180,1.0,6.0,74,0.00,,,0.00,Wunderground v.1.15,2013-04-17 00:47:00,
2013-04-16 20:48:00,65.0,56.5,30.26,South,183,5.0,6.0,74,0.00,,,0.00,Wunderground v.1.15,2013-04-17 00:48:00,
2013-04-16 20:52:00,65.0,56.5,30.26,South,173,1.0,4.0,74,0.00,,,0.00,Wunderground v.1.15,2013-04-17 00:52:00,
2013-04-16 20:53:00,64.9,56.4,30.26,SSE,167,2.0,4.0,74,0.00,,,0.00,Wunderground v.1.15,2013-04-17 00:53:00,
2013-04-16 20:54:00,64.9,56.4,30.26,SSE,163,3.0,4.0,74,0.00,,,0.00,Wunderground v.1.15,2013-04-17 00:54:00,
2013-04-16 20:57:00,64.8,56.3,30.27,SE,139,2.0,5.0,74,0.00,,,0.00,Wunderground v.1.15,2013-04-17 00:57:00,
2013-04-16 20:58:00,64.8,56.3,30.27,South,173,4.0,5.0,74,0.00,,,0.00,Wunderground v.1.15,2013-04-17 00:58:00,
2013-04-16 20:59:00,64.8,56.3,30.27,South,171,3.0,5.0,74,0.00,,,0.00,Wunderground v.1.15,2013-04-17 00:59:00,
2013-04-16 21:02:00,64.7,56.6,30.27,SSE,158,2.0,4.0,75,0.00,,,0.00,Wunderground v.1.15,2013-04-17 01:02:00,
2013-04-16 21:03:00,64.7,56.6,30.27,South,187,2.0,4.0,75,0.00,,,0.00,Wunderground v.1.15,2013-04-17 01:03:00,
2013-04-16 21:04:00,64.6,56.5,30.27,SE,146,2.0,4.0,75,0.00,,,0.00,Wunderground v.1.15,2013-04-17 01:04:00,
2013-04-16 21:08:00,64.5,56.4,30.27,South,186,4.0,7.0,75,0.00,,,0.00,Wunderground v.1.15,2013-04-17 01:08:00,
2013-04-16 21:09:00,64.5,56.4,30.27,South,175,3.0,7.0,75,0.00,,,0.00,Wunderground v.1.15,2013-04-17 01:09:00,
2013-04-16 21:13:00,64.5,56.4,30.27,South,182,1.0,6.0,75,0.00,,,0.00,Wunderground v.1.15,2013-04-17 01:13:00,
2013-04-16 21:14:00,64.5,56.4,30.27,South,188,3.0,6.0,75,0.00,,,0.00,Wunderground v.1.15,2013-04-17 01:14:00,
2013-04-16 21:18:00,64.3,56.2,30.27,South,189,7.0,7.0,75,0.00,,,0.00,Wunderground v.1.15,2013-04-17 01:18:00,
2013-04-16 21:19:00,64.3,56.2,30.27,South,186,7.0,7.0,75,0.00,,,0.00,Wunderground v.1.15,2013-04-17 01:19:00,
2013-04-16 21:20:00,64.3,56.2,30.27,SSW,199,2.0,3.0,75,0.00,,,0.00,Wunderground v.1.15,2013-04-17 01:20:00,
2013-04-16 21:23:00,64.2,56.1,30.27,South,186,3.0,5.0,75,0.00,,,0.00,Wunderground v.1.15,2013-04-17 01:23:00,
2013-04-16 21:24:00,64.2,56.1,30.27,South,176,4.0,5.0,75,0.00,,,0.00,Wunderground v.1.15,2013-04-17 01:24:00,
2013-04-16 21:25:00,64.2,56.5,30.27,South,190,4.0,5.0,76,0.00,,,0.00,Wunderground v.1.15,2013-04-17 01:25:00,
2013-04-16 21:27:00,64.1,56.4,30.27,SSW,204,3.0,6.0,76,0.00,,,0.00,Wunderground v.1.15,2013-04-17 01:27:00,
2013-04-16 21:29:00,64.0,56.3,30.27,South,187,1.0,6.0,76,0.00,,,0.00,Wunderground v.1.15,2013-04-17 01:29:00,
2013-04-16 21:30:00,64.0,56.3,30.27,South,184,3.0,3.0,76,0.00,,,0.00,Wunderground v.1.15,2013-04-17 01:30:00,
2013-04-16 21:33:00,64.0,56.3,30.27,SSW,199,0.0,6.0,76,0.00,,,0.00,Wunderground v.1.15,2013-04-17 01:33:00,
2013-04-16 21:34:00,63.9,56.2,30.28,SSW,192,0.0,6.0,76,0.00,,,0.00,Wunderground v.1.15,2013-04-17 01:34:00,
2013-04-16 21:35:00,63.9,56.2,30.28,South,189,4.0,6.0,76,0.00,,,0.00,Wunderground v.1.15,2013-04-17 01:35:00,
2013-04-16 21:38:00,63.8,56.1,30.27,South,180,3.0,6.0,76,0.00,,,0.00,Wunderground v.1.15,2013-04-17 01:38:00,
2013-04-16 21:39:00,63.8,56.1,30.27,SSW,206,5.0,6.0,76,0.00,,,0.00,Wunderground v.1.15,2013-04-17 01:39:00,
2013-04-16 21:40:00,63.8,56.1,30.27,South,178,3.0,3.0,76,0.00,,,0.00,Wunderground v.1.15,2013-04-17 01:40:00,
2013-04-16 21:41:00,63.8,56.1,30.27,South,177,2.0,4.0,76,0.00,,,0.00,Wunderground v.1.15,2013-04-17 01:41:00,
2013-04-16 21:43:00,63.7,56.0,30.27,South,169,2.0,7.0,76,0.00,,,0.00,Wunderground v.1.15,2013-04-17 01:43:00,
2013-04-16 21:44:00,63.7,56.0,30.27,South,184,4.0,7.0,76,0.00,,,0.00,Wunderground v.1.15,2013-04-17 01:44:00,
2013-04-16 21:45:00,63.7,56.0,30.27,South,182,4.0,7.0,76,0.00,,,0.00,Wunderground v.1.15,2013-04-17 01:45:00,
2013-04-16 21:46:00,63.7,56.0,30.27,South,186,2.0,7.0,76,0.00,,,0.00,Wunderground v.1.15,2013-04-17 01:46:00,
2013-04-16 21:49:00,63.7,56.4,30.27,South,169,4.0,7.0,77,0.00,,,0.00,Wunderground v.1.15,2013-04-17 01:49:00,
2013-04-16 21:50:00,63.6,56.3,30.27,SSW,194,1.0,3.0,77,0.00,,,0.00,Wunderground v.1.15,2013-04-17 01:50:00,
2013-04-16 21:51:00,63.6,56.3,30.28,South,191,3.0,4.0,77,0.00,,,0.00,Wunderground v.1.15,2013-04-17 01:51:00,
2013-04-16 21:54:00,63.5,56.2,30.28,South,178,3.0,4.0,77,0.00,,,0.00,Wunderground v.1.15,2013-04-17 01:54:00,
2013-04-16 21:55:00,63.5,56.2,30.28,SSW,195,1.0,4.0,77,0.00,,,0.00,Wunderground v.1.15,2013-04-17 01:55:00,
2013-04-16 21:57:00,63.5,56.2,30.28,South,180,3.0,4.0,77,0.00,,,0.00,Wunderground v.1.15,2013-04-17 01:57:00,
2013-04-16 21:59:00,63.5,56.2,30.28,SSW,192,3.0,5.0,77,0.00,,,0.00,Wunderground v.1.15,2013-04-17 01:59:00,
2013-04-16 22:00:00,63.5,56.2,30.28,SSE,160,4.0,5.0,77,0.00,,,0.00,Wunderground v.1.15,2013-04-17 02:00:00,
2013-04-16 22:02:00,63.4,56.1,30.28,South,178,3.0,5.0,77,0.00,,,0.00,Wunderground v.1.15,2013-04-17 02:02:00,
2013-04-16 22:04:00,63.4,56.1,30.28,South,190,0.0,5.0,77,0.00,,,0.00,Wunderground v.1.15,2013-04-17 02:04:00,
2013-04-16 22:05:00,63.4,56.1,30.28,South,178,2.0,5.0,77,0.00,,,0.00,Wunderground v.1.15,2013-04-17 02:05:00,
2013-04-16 22:06:00,63.4,56.1,30.28,South,186,2.0,5.0,77,0.00,,,0.00,Wunderground v.1.15,2013-04-17 02:06:00,
2013-04-16 22:08:00,63.3,56.0,30.28,SSE,152,3.0,6.0,77,0.00,,,0.00,Wunderground v.1.15,2013-04-17 02:08:00,
2013-04-16 22:10:00,63.2,55.9,30.28,South,182,2.0,2.0,77,0.00,,,0.00,Wunderground v.1.15,2013-04-17 02:10:00,
2013-04-16 22:11:00,63.2,55.9,30.28,South,182,3.0,5.0,77,0.00,,,0.00,Wunderground v.1.15,2013-04-17 02:11:00,
2013-04-16 22:13:00,63.2,55.9,30.28,SSE,155,2.0,6.0,77,0.00,,,0.00,Wunderground v.1.15,2013-04-17 02:13:00,
2013-04-16 22:15:00,63.2,55.9,30.28,SSW,197,1.0,6.0,77,0.00,,,0.00,Wunderground v.1.15,2013-04-17 02:15:00,
2013-04-16 22:16:00,63.2,55.9,30.28,South,173,3.0,6.0,77,0.00,,,0.00,Wunderground v.1.15,2013-04-17 02:16:00,
2013-04-16 22:17:00,63.2,55.9,30.28,South,179,3.0,6.0,77,0.00,,,0.00,Wunderground v.1.15,2013-04-17 02:17:00,
2013-04-16 22:19:00,63.1,55.8,30.28,SSE,167,3.0,6.0,77,0.00,,,0.00,Wunderground v.1.15,2013-04-17 02:19:00,
2013-04-16 22:20:00,63.1,55.8,30.28,South,175,3.0,5.0,77,0.00,,,0.00,Wunderground v.1.15,2013-04-17 02:20:00,
2013-04-16 22:21:00,63.1,55.8,30.28,South,184,5.0,5.0,77,0.00,,,0.00,Wunderground v.1.15,2013-04-17 02:21:00,
2013-04-16 22:22:00,63.1,55.8,30.28,South,183,2.0,5.0,77,0.00,,,0.00,Wunderground v.1.15,2013-04-17 02:22:00,
2013-04-16 22:24:00,63.1,55.8,30.28,South,190,5.0,5.0,77,0.00,,,0.00,Wunderground v.1.15,2013-04-17 02:24:00,
2013-04-16 22:25:00,63.0,55.7,30.28,SSW,195,5.0,5.0,77,0.00,,,0.00,Wunderground v.1.15,2013-04-17 02:25:00,
2013-04-16 22:26:00,63.0,55.7,30.28,South,178,2.0,5.0,77,0.00,,,0.00,Wunderground v.1.15,2013-04-17 02:26:00,
2013-04-16 22:27:00,63.0,55.7,30.28,South,178,3.0,5.0,77,0.00,,,0.00,Wunderground v.1.15,2013-04-17 02:27:00,
2013-04-16 22:29:00,63.0,55.7,30.28,South,190,4.0,7.0,77,0.00,,,0.00,Wunderground v.1.15,2013-04-17 02:29:00,
2013-04-16 22:31:00,62.9,55.6,30.28,SSW,196,0.0,4.0,77,0.00,,,0.00,Wunderground v.1.15,2013-04-17 02:31:00,
2013-04-16 22:32:00,62.9,55.6,30.28,SSE,163,3.0,5.0,77,0.00,,,0.00,Wunderground v.1.15,2013-04-17 02:32:00,
2013-04-16 22:34:00,62.9,55.6,30.28,South,176,3.0,6.0,77,0.00,,,0.00,Wunderground v.1.15,2013-04-17 02:34:00,
2013-04-16 22:36:00,62.9,55.6,30.28,SSW,197,5.0,7.0,77,0.00,,,0.00,Wunderground v.1.15,2013-04-17 02:36:00,
2013-04-16 22:37:00,62.9,55.6,30.28,SSE,167,7.0,7.0,77,0.00,,,0.00,Wunderground v.1.15,2013-04-17 02:37:00,
2013-04-16 22:40:00,62.8,55.5,30.27,South,184,6.0,6.0,77,0.00,,,0.00,Wunderground v.1.15,2013-04-17 02:40:00,
2013-04-16 22:41:00,62.8,55.5,30.28,South,179,2.0,8.0,77,0.00,,,0.00,Wunderground v.1.15,2013-04-17 02:41:00,
2013-04-16 22:42:00,62.8,55.5,30.28,South,187,2.0,8.0,77,0.00,,,0.00,Wunderground v.1.15,2013-04-17 02:42:00,
2013-04-16 22:43:00,62.8,55.5,30.28,South,184,6.0,8.0,77,0.00,,,0.00,Wunderground v.1.15,2013-04-17 02:43:00,
2013-04-16 22:45:00,62.8,55.8,30.28,South,172,4.0,8.0,78,0.00,,,0.00,Wunderground v.1.15,2013-04-17 02:45:00,
2013-04-16 22:46:00,62.7,55.7,30.28,South,177,4.0,8.0,78,0.00,,,0.00,Wunderground v.1.15,2013-04-17 02:46:00,
2013-04-16 22:47:00,62.6,55.6,30.28,SSW,196,5.0,8.0,78,0.00,,,0.00,Wunderground v.1.15,2013-04-17 02:47:00,
2013-04-16 22:48:00,62.6,55.6,30.28,South,176,2.0,8.0,78,0.00,,,0.00,Wunderground v.1.15,2013-04-17 02:48:00,
2013-04-16 22:50:00,62.5,55.5,30.28,SSW,198,1.0,4.0,78,0.00,,,0.00,Wunderground v.1.15,2013-04-17 02:50:00,
2013-04-16 22:51:00,62.6,55.6,30.28,South,190,2.0,4.0,78,0.00,,,0.00,Wunderground v.1.15,2013-04-17 02:51:00,
2013-04-16 22:52:00,62.6,55.6,30.28,SSW,195,2.0,4.0,78,0.00,,,0.00,Wunderground v.1.15,2013-04-17 02:52:00,
2013-04-16 22:53:00,62.7,55.7,30.28,SSW,196,2.0,6.0,78,0.00,,,0.00,Wunderground v.1.15,2013-04-17 02:53:00,
2013-04-16 22:55:00,62.6,55.6,30.28,SSW,198,1.0,6.0,78,0.00,,,0.00,Wunderground v.1.15,2013-04-17 02:55:00,
2013-04-16 22:57:00,62.6,55.6,30.28,SSW,209,1.0,6.0,78,0.00,,,0.00,Wunderground v.1.15,2013-04-17 02:57:00,
2013-04-16 22:58:00,62.6,55.6,30.28,South,182,3.0,6.0,78,0.00,,,0.00,Wunderground v.1.15,2013-04-17 02:58:00,
2013-04-16 23:00:00,62.5,55.5,30.28,SSW,209,1.0,2.0,78,0.00,,,0.00,Wunderground v.1.15,2013-04-17 03:00:00,
2013-04-16 23:02:00,62.5,55.5,30.27,SW,221,0.0,2.0,78,0.00,,,0.00,Wunderground v.1.15,2013-04-17 03:02:00,
2013-04-16 23:03:00,62.4,55.4,30.27,SSW,192,3.0,4.0,78,0.00,,,0.00,Wunderground v.1.15,2013-04-17 03:03:00,
2013-04-16 23:04:00,62.4,55.4,30.27,South,184,1.0,4.0,78,0.00,,,0.00,Wunderground v.1.15,2013-04-17 03:04:00,
2013-04-16 23:06:00,62.3,55.4,30.27,SSW,200,4.0,5.0,78,0.00,,,0.00,Wunderground v.1.15,2013-04-17 03:06:00,
2013-04-16 23:07:00,62.2,55.3,30.27,SSW,209,4.0,5.0,78,0.00,,,0.00,Wunderground v.1.15,2013-04-17 03:07:00,
2013-04-16 23:08:00,62.2,55.3,30.27,SW,217,2.0,5.0,78,0.00,,,0.00,Wunderground v.1.15,2013-04-17 03:08:00,
2013-04-16 23:09:00,62.1,55.2,30.27,South,176,1.0,7.0,78,0.00,,,0.00,Wunderground v.1.15,2013-04-17 03:09:00,
2013-04-16 23:11:00,62.0,55.4,30.27,SSW,196,5.0,5.0,79,0.00,,,0.00,Wunderground v.1.15,2013-04-17 03:11:00,
2013-04-16 23:13:00,62.0,55.4,30.27,South,184,4.0,6.0,79,0.00,,,0.00,Wunderground v.1.15,2013-04-17 03:13:00,
2013-04-16 23:14:00,62.0,55.4,30.27,SSW,200,5.0,6.0,79,0.00,,,0.00,Wunderground v.1.15,2013-04-17 03:14:00,
2013-04-16 23:15:00,61.9,55.3,30.27,South,173,4.0,6.0,79,0.00,,,0.00,Wunderground v.1.15,2013-04-17 03:15:00,
2013-04-16 23:17:00,61.8,55.2,30.27,South,190,5.0,6.0,79,0.00,,,0.00,Wunderground v.1.15,2013-04-17 03:17:00,
2013-04-16 23:18:00,61.8,55.2,30.27,South,189,5.0,6.0,79,0.00,,,0.00,Wunderground v.1.15,2013-04-17 03:18:00,
2013-04-16 23:19:00,61.7,55.1,30.27,South,183,3.0,6.0,79,0.00,,,0.00,Wunderground v.1.15,2013-04-17 03:19:00,
2013-04-16 23:20:00,61.7,55.1,30.27,South,178,1.0,3.0,79,0.00,,,0.00,Wunderground v.1.15,2013-04-17 03:20:00,
2013-04-16 23:23:00,61.7,55.1,30.27,South,184,2.0,3.0,79,0.00,,,0.00,Wunderground v.1.15,2013-04-17 03:23:00,
2013-04-16 23:24:00,61.7,55.1,30.27,SSW,192,3.0,3.0,79,0.00,,,0.00,Wunderground v.1.15,2013-04-17 03:24:00,
2013-04-16 23:25:00,61.8,55.2,30.27,SSW,192,0.0,3.0,79,0.00,,,0.00,Wunderground v.1.15,2013-04-17 03:25:00,
2013-04-16 23:28:00,61.7,55.1,30.27,South,182,2.0,4.0,79,0.00,,,0.00,Wunderground v.1.15,2013-04-17 03:28:00,
2013-04-16 23:29:00,61.7,55.1,30.27,South,172,3.0,5.0,79,0.00,,,0.00,Wunderground v.1.15,2013-04-17 03:29:00,
2013-04-16 23:31:00,61.7,55.1,30.27,South,188,2.0,4.0,79,0.00,,,0.00,Wunderground v.1.15,2013-04-17 03:31:00,
2013-04-16 23:33:00,61.7,55.1,30.27,South,184,0.0,4.0,79,0.00,,,0.00,Wunderground v.1.15,2013-04-17 03:33:00,
2013-04-16 23:34:00,61.7,55.1,30.27,South,184,0.0,4.0,79,0.00,,,0.00,Wunderground v.1.15,2013-04-17 03:34:00,
2013-04-16 23:35:00,61.6,55.0,30.27,South,184,0.0,4.0,79,0.00,,,0.00,Wunderground v.1.15,2013-04-17 03:35:00,
2013-04-16 23:36:00,61.6,55.0,30.27,SSW,192,1.0,4.0,79,0.00,,,0.00,Wunderground v.1.15,2013-04-17 03:36:00,
2013-04-16 23:39:00,61.5,55.3,30.27,South,187,1.0,4.0,80,0.00,,,0.00,Wunderground v.1.15,2013-04-17 03:39:00,
2013-04-16 23:40:00,61.5,55.3,30.27,South,187,3.0,3.0,80,0.00,,,0.00,Wunderground v.1.15,2013-04-17 03:40:00,
2013-04-16 23:42:00,61.4,55.2,30.27,South,175,2.0,3.0,80,0.00,,,0.00,Wunderground v.1.15,2013-04-17 03:42:00,
2013-04-16 23:44:00,61.4,55.2,30.27,SSE,163,3.0,4.0,80,0.00,,,0.00,Wunderground v.1.15,2013-04-17 03:44:00,
2013-04-16 23:45:00,61.4,55.2,30.27,South,173,2.0,4.0,80,0.00,,,0.00,Wunderground v.1.15,2013-04-17 03:45:00,
2013-04-16 23:47:00,61.3,55.1,30.27,South,175,2.0,4.0,80,0.00,,,0.00,Wunderground v.1.15,2013-04-17 03:47:00,
2013-04-16 23:49:00,61.2,55.0,30.27,South,175,3.0,4.0,80,0.00,,,0.00,Wunderground v.1.15,2013-04-17 03:49:00,
2013-04-16 23:50:00,61.2,55.0,30.27,SSE,149,2.0,3.0,80,0.00,,,0.00,Wunderground v.1.15,2013-04-17 03:50:00,
2013-04-16 23:52:00,61.2,55.0,30.27,South,181,4.0,4.0,80,0.00,,,0.00,Wunderground v.1.15,2013-04-17 03:52:00,
2013-04-16 23:54:00,61.2,55.0,30.27,SSE,159,2.0,4.0,80,0.00,,,0.00,Wunderground v.1.15,2013-04-17 03:54:00,
2013-04-16 23:55:00,61.1,54.9,30.27,SSE,154,3.0,4.0,80,0.00,,,0.00,Wunderground v.1.15,2013-04-17 03:55:00,
2013-04-16 23:56:00,61.1,54.9,30.27,SSE,160,3.0,4.0,80,0.00,,,0.00,Wunderground v.1.15,2013-04-17 03:56:00,
2013-04-16 23:57:00,61.1,54.9,30.27,SE,146,1.0,4.0,80,0.00,,,0.00,Wunderground v.1.15,2013-04-17 03:57:00,
2013-04-16 23:59:00,61.1,54.9,30.27,SSW,205,1.0,4.0,80,0.00,,,0.00,Wunderground v.1.15,2013-04-17 03:59:00,